Time,TemperatureF,DewpointF,PressureIn,WindDirection,WindDirectionDegrees,WindSpeedMPH,WindSpeedGustMPH,Humidity,HourlyPrecipIn,Conditions,Clouds,dailyrainin,SoftwareType,DateUTC
2013-02-12 00:00:00,31.9,25.2,29.91,WNW,286,11.0,22.0,76,0.00,,---,0.00,VWS V14.00,2013-02-12 05:00:00,
2013-02-12 00:01:00,31.9,25.2,29.91,NNW,336,10.0,22.0,76,0.00,,---,0.00,VWS V14.00,2013-02-12 05:01:00,
2013-02-12 00:02:00,31.9,25.2,29.91,NW,320,11.0,22.0,76,0.00,,---,0.00,VWS V14.00,2013-02-12 05:02:00,
2013-02-12 00:05:00,31.9,25.2,29.91,NW,325,7.0,22.0,76,0.00,,---,0.00,VWS V14.00,2013-02-12 05:05:00,
2013-02-12 00:06:00,31.9,25.2,29.91,NW,304,10.0,22.0,76,0.00,,---,0.00,VWS V14.00,2013-02-12 05:06:00,
2013-02-12 00:07:00,31.9,25.2,29.91,NW,315,5.0,22.0,76,0.00,,---,0.00,VWS V14.00,2013-02-12 05:07:00,
2013-02-12 00:10:00,31.9,24.9,29.91,WNW,292,6.0,22.0,75,0.00,,---,0.00,VWS V14.00,2013-02-12 05:10:00,
2013-02-12 00:11:00,31.9,25.2,29.91,West,279,8.0,22.0,76,0.00,,---,0.00,VWS V14.00,2013-02-12 05:11:00,
2013-02-12 00:12:00,31.9,25.2,29.91,West,274,6.0,22.0,76,0.00,,---,0.00,VWS V14.00,2013-02-12 05:12:00,
2013-02-12 00:13:00,31.9,25.2,29.91,NW,311,9.0,22.0,76,0.00,,---,0.00,VWS V14.00,2013-02-12 05:13:00,
2013-02-12 00:16:00,31.9,25.2,29.92,WNW,298,10.0,22.0,76,0.00,,---,0.00,VWS V14.00,2013-02-12 05:16:00,
2013-02-12 00:17:00,31.9,25.2,29.92,WNW,283,10.0,22.0,76,0.00,,---,0.00,VWS V14.00,2013-02-12 05:17:00,
2013-02-12 00:19:00,31.9,25.2,29.92,NW,323,11.0,22.0,76,0.00,,---,0.00,VWS V14.00,2013-02-12 05:19:00,
2013-02-12 00:22:00,31.8,25.1,29.92,WNW,298,5.0,22.0,76,0.00,,---,0.00,VWS V14.00,2013-02-12 05:22:00,
2013-02-12 00:23:00,31.8,25.1,29.92,NW,315,12.0,22.0,76,0.00,,---,0.00,VWS V14.00,2013-02-12 05:23:00,
2013-02-12 00:24:00,31.8,25.1,29.92,WNW,302,6.0,22.0,76,0.00,,---,0.00,VWS V14.00,2013-02-12 05:24:00,
2013-02-12 00:27:00,31.8,25.1,29.92,NW,317,12.0,22.0,76,0.00,,---,0.00,VWS V14.00,2013-02-12 05:27:00,
2013-02-12 00:29:00,31.8,25.1,29.92,West,263,10.0,15.0,76,0.00,,---,0.00,VWS V14.00,2013-02-12 05:29:00,
2013-02-12 00:30:00,31.7,25.0,29.92,NNW,329,11.0,15.0,76,0.00,,---,0.00,VWS V14.00,2013-02-12 05:30:00,
2013-02-12 00:34:00,31.7,25.0,29.92,NW,304,4.0,16.0,76,0.00,,---,0.00,VWS V14.00,2013-02-12 05:34:00,
2013-02-12 00:35:00,31.7,25.0,29.92,NW,313,5.0,16.0,76,0.00,,---,0.00,VWS V14.00,2013-02-12 05:35:00,
2013-02-12 00:40:00,31.6,25.2,29.92,WNW,296,7.0,16.0,77,0.00,,---,0.00,VWS V14.00,2013-02-12 05:40:00,
2013-02-12 00:42:00,31.6,25.2,29.92,NW,320,17.0,20.0,77,0.00,,---,0.00,VWS V14.00,2013-02-12 05:42:00,
2013-02-12 00:45:00,31.6,25.2,29.92,NW,311,6.0,23.0,77,0.00,,---,0.00,VWS V14.00,2013-02-12 05:45:00,
2013-02-12 00:46:00,31.6,25.2,29.92,WNW,286,16.0,23.0,77,0.00,,---,0.00,VWS V14.00,2013-02-12 05:46:00,
2013-02-12 00:47:00,31.5,25.1,29.92,WNW,288,6.0,23.0,77,0.00,,---,0.00,VWS V14.00,2013-02-12 05:47:00,
2013-02-12 00:48:00,31.5,25.1,29.92,WNW,282,12.0,23.0,77,0.00,,---,0.00,VWS V14.00,2013-02-12 05:48:00,
2013-02-12 00:50:00,31.6,25.2,29.92,WNW,292,12.0,23.0,77,0.00,,---,0.00,VWS V14.00,2013-02-12 05:50:00,
2013-02-12 00:52:00,31.5,25.1,29.92,WNW,296,11.0,23.0,77,0.00,,---,0.00,VWS V14.00,2013-02-12 05:52:00,
2013-02-12 00:53:00,31.5,25.1,29.92,WNW,290,6.0,23.0,77,0.00,,---,0.00,VWS V14.00,2013-02-12 05:53:00,
2013-02-12 00:54:00,31.5,25.1,29.92,NW,314,9.0,23.0,77,0.00,,---,0.00,VWS V14.00,2013-02-12 05:54:00,
2013-02-12 00:58:00,31.5,25.1,29.92,NW,304,16.0,23.0,77,0.00,,---,0.00,VWS V14.00,2013-02-12 05:58:00,
2013-02-12 00:59:00,31.5,25.1,29.92,NW,311,10.0,16.0,77,0.00,,---,0.00,VWS V14.00,2013-02-12 05:59:00,
2013-02-12 01:01:00,31.5,25.1,29.93,WNW,284,9.0,17.0,77,0.00,,---,0.00,VWS V14.00,2013-02-12 06:01:00,
2013-02-12 01:05:00,31.5,25.1,29.93,WNW,286,6.0,17.0,77,0.00,,---,0.00,VWS V14.00,2013-02-12 06:05:00,
2013-02-12 01:06:00,31.4,25.0,29.93,NW,309,3.0,17.0,77,0.00,,---,0.00,VWS V14.00,2013-02-12 06:06:00,
2013-02-12 01:07:00,31.5,25.1,29.93,WNW,300,3.0,17.0,77,0.00,,---,0.00,VWS V14.00,2013-02-12 06:07:00,
2013-02-12 01:11:00,31.4,25.0,29.93,West,275,11.0,17.0,77,0.00,,---,0.00,VWS V14.00,2013-02-12 06:11:00,
2013-02-12 01:12:00,31.4,25.0,29.93,NW,308,9.0,17.0,77,0.00,,---,0.00,VWS V14.00,2013-02-12 06:12:00,
2013-02-12 01:13:00,31.4,25.0,29.94,NW,306,4.0,17.0,77,0.00,,---,0.00,VWS V14.00,2013-02-12 06:13:00,
2013-02-12 01:16:00,31.4,25.0,29.93,WNW,286,10.0,18.0,77,0.00,,---,0.00,VWS V14.00,2013-02-12 06:16:00,
2013-02-12 01:18:00,31.4,25.0,29.93,WNW,299,5.0,18.0,77,0.00,,---,0.00,VWS V14.00,2013-02-12 06:18:00,
2013-02-12 01:21:00,31.4,25.0,29.93,West,281,6.0,18.0,77,0.00,,---,0.00,VWS V14.00,2013-02-12 06:21:00,
2013-02-12 01:22:00,31.4,25.0,29.93,WNW,298,6.0,18.0,77,0.00,,---,0.00,VWS V14.00,2013-02-12 06:22:00,
2013-02-12 01:23:00,31.4,25.0,29.93,WNW,291,12.0,27.0,77,0.00,,---,0.00,VWS V14.00,2013-02-12 06:23:00,
2013-02-12 01:25:00,31.4,25.0,29.93,WNW,298,9.0,27.0,77,0.00,,---,0.00,VWS V14.00,2013-02-12 06:25:00,
2013-02-12 01:27:00,31.4,25.0,29.93,NW,319,12.0,27.0,77,0.00,,---,0.00,VWS V14.00,2013-02-12 06:27:00,
2013-02-12 01:30:00,31.4,25.0,29.93,WNW,300,4.0,11.0,77,0.00,,---,0.00,VWS V14.00,2013-02-12 06:30:00,
2013-02-12 01:32:00,31.4,25.0,29.93,NW,305,16.0,16.0,77,0.00,,---,0.00,VWS V14.00,2013-02-12 06:32:00,
2013-02-12 01:34:00,31.4,25.0,29.93,WNW,291,10.0,17.0,77,0.00,,---,0.00,VWS V14.00,2013-02-12 06:34:00,
2013-02-12 01:35:00,31.4,25.0,29.94,WNW,296,12.0,17.0,77,0.00,,---,0.00,VWS V14.00,2013-02-12 06:35:00,
2013-02-12 01:36:00,31.4,25.0,29.94,NW,304,9.0,17.0,77,0.00,,---,0.00,VWS V14.00,2013-02-12 06:36:00,
2013-02-12 01:37:00,31.4,25.0,29.94,WNW,284,3.0,17.0,77,0.00,,---,0.00,VWS V14.00,2013-02-12 06:37:00,
2013-02-12 01:39:00,31.4,25.0,29.94,WNW,299,1.0,17.0,77,0.00,,---,0.00,VWS V14.00,2013-02-12 06:39:00,
2013-02-12 01:41:00,31.4,25.0,29.94,WNW,296,4.0,17.0,77,0.00,,---,0.00,VWS V14.00,2013-02-12 06:41:00,
2013-02-12 01:42:00,31.4,25.4,29.94,NW,310,6.0,17.0,78,0.00,,---,0.00,VWS V14.00,2013-02-12 06:42:00,
2013-02-12 01:43:00,31.4,25.4,29.94,West,260,6.0,17.0,78,0.00,,---,0.00,VWS V14.00,2013-02-12 06:43:00,
2013-02-12 01:44:00,31.4,25.4,29.94,WNW,288,8.0,17.0,78,0.00,,---,0.00,VWS V14.00,2013-02-12 06:44:00,
2013-02-12 01:47:00,31.3,25.2,29.94,WNW,294,5.0,17.0,78,0.00,,---,0.00,VWS V14.00,2013-02-12 06:47:00,
2013-02-12 01:49:00,31.3,25.2,29.94,NW,315,7.0,17.0,78,0.00,,---,0.00,VWS V14.00,2013-02-12 06:49:00,
2013-02-12 01:50:00,31.3,25.2,29.94,West,260,14.0,17.0,78,0.00,,---,0.00,VWS V14.00,2013-02-12 06:50:00,
2013-02-12 01:52:00,31.3,25.2,29.94,West,279,13.0,17.0,78,0.00,,---,0.00,VWS V14.00,2013-02-12 06:52:00,
2013-02-12 01:54:00,31.2,25.1,29.94,WNW,285,11.0,17.0,78,0.00,,---,0.00,VWS V14.00,2013-02-12 06:54:00,
2013-02-12 01:57:00,31.2,25.1,29.94,WNW,300,9.0,18.0,78,0.00,,---,0.00,VWS V14.00,2013-02-12 06:57:00,
2013-02-12 01:58:00,31.2,25.1,29.94,NW,326,10.0,18.0,78,0.00,,---,0.00,VWS V14.00,2013-02-12 06:58:00,
2013-02-12 02:00:00,31.1,25.4,29.94,NNW,330,11.0,18.0,79,0.00,,---,0.00,VWS V14.00,2013-02-12 07:00:00,
2013-02-12 02:02:00,31.1,25.4,29.94,WNW,286,2.0,19.0,79,0.00,,---,0.00,VWS V14.00,2013-02-12 07:02:00,
2013-02-12 02:04:00,31.1,25.4,29.94,NW,304,2.0,19.0,79,0.00,,---,0.00,VWS V14.00,2013-02-12 07:04:00,
2013-02-12 02:05:00,31.0,25.3,29.94,WNW,287,7.0,19.0,79,0.00,,---,0.00,VWS V14.00,2013-02-12 07:05:00,
2013-02-12 02:06:00,31.0,25.3,29.94,West,281,3.0,19.0,79,0.00,,---,0.00,VWS V14.00,2013-02-12 07:06:00,
2013-02-12 02:09:00,31.0,25.6,29.94,WNW,294,7.0,19.0,80,0.00,,---,0.00,VWS V14.00,2013-02-12 07:09:00,
2013-02-12 02:10:00,31.0,25.6,29.94,WNW,299,11.0,19.0,80,0.00,,---,0.00,VWS V14.00,2013-02-12 07:10:00,
2013-02-12 02:11:00,31.0,25.6,29.94,NW,305,10.0,19.0,80,0.00,,---,0.00,VWS V14.00,2013-02-12 07:11:00,
2013-02-12 02:13:00,30.9,25.5,29.94,NW,323,7.0,19.0,80,0.00,,---,0.00,VWS V14.00,2013-02-12 07:13:00,
2013-02-12 02:15:00,30.8,25.4,29.95,WNW,292,5.0,19.0,80,0.00,,---,0.00,VWS V14.00,2013-02-12 07:15:00,
2013-02-12 02:17:00,30.8,25.4,29.95,NNW,336,3.0,19.0,80,0.00,,---,0.00,VWS V14.00,2013-02-12 07:17:00,
2013-02-12 02:18:00,30.8,25.7,29.95,NNW,347,9.0,19.0,81,0.00,,---,0.00,VWS V14.00,2013-02-12 07:18:00,
2013-02-12 02:20:00,30.8,25.7,29.95,NW,318,6.0,19.0,81,0.00,,---,0.00,VWS V14.00,2013-02-12 07:20:00,
2013-02-12 02:21:00,30.8,25.7,29.95,West,273,2.0,19.0,81,0.00,,---,0.00,VWS V14.00,2013-02-12 07:21:00,
2013-02-12 02:23:00,30.8,25.7,29.95,NW,306,5.0,19.0,81,0.00,,---,0.00,VWS V14.00,2013-02-12 07:23:00,
2013-02-12 02:24:00,30.8,25.7,29.95,West,263,3.0,19.0,81,0.00,,---,0.00,VWS V14.00,2013-02-12 07:24:00,
2013-02-12 02:27:00,30.8,25.7,29.95,NW,307,3.0,19.0,81,0.00,,---,0.00,VWS V14.00,2013-02-12 07:27:00,
2013-02-12 02:28:00,30.8,25.7,29.95,NW,317,1.0,19.0,81,0.00,,---,0.00,VWS V14.00,2013-02-12 07:28:00,
2013-02-12 02:30:00,30.8,25.7,29.95,WNW,300,0.0,4.0,81,0.00,,---,0.00,VWS V14.00,2013-02-12 07:30:00,
2013-02-12 02:32:00,30.9,25.8,29.95,WNW,284,11.0,18.0,81,0.00,,---,0.00,VWS V14.00,2013-02-12 07:32:00,
2013-02-12 02:33:00,30.9,25.8,29.95,WNW,291,11.0,18.0,81,0.00,,---,0.00,VWS V14.00,2013-02-12 07:33:00,
2013-02-12 02:34:00,30.9,25.8,29.95,NW,308,9.0,18.0,81,0.00,,---,0.00,VWS V14.00,2013-02-12 07:34:00,
2013-02-12 02:35:00,31.0,25.6,29.95,WNW,294,4.0,18.0,80,0.00,,---,0.00,VWS V14.00,2013-02-12 07:35:00,
2013-02-12 02:37:00,31.0,25.6,29.95,WNW,296,3.0,18.0,80,0.00,,---,0.00,VWS V14.00,2013-02-12 07:37:00,
2013-02-12 02:38:00,31.0,25.6,29.95,WNW,290,3.0,18.0,80,0.00,,---,0.00,VWS V14.00,2013-02-12 07:38:00,
2013-02-12 02:39:00,31.0,25.6,29.95,West,261,4.0,18.0,80,0.00,,---,0.00,VWS V14.00,2013-02-12 07:39:00,
2013-02-12 02:40:00,31.0,25.6,29.96,WNW,287,5.0,18.0,80,0.00,,---,0.00,VWS V14.00,2013-02-12 07:40:00,
2013-02-12 02:43:00,31.0,25.9,29.96,West,281,5.0,18.0,81,0.00,,---,0.00,VWS V14.00,2013-02-12 07:43:00,
2013-02-12 02:44:00,31.0,25.9,29.96,WNW,289,11.0,18.0,81,0.00,,---,0.00,VWS V14.00,2013-02-12 07:44:00,
2013-02-12 02:45:00,31.0,25.6,29.96,NW,306,9.0,18.0,80,0.00,,---,0.00,VWS V14.00,2013-02-12 07:45:00,
2013-02-12 02:47:00,31.0,25.6,29.96,NW,315,6.0,18.0,80,0.00,,---,0.00,VWS V14.00,2013-02-12 07:47:00,
2013-02-12 02:48:00,31.0,25.6,29.96,WNW,291,6.0,18.0,80,0.00,,---,0.00,VWS V14.00,2013-02-12 07:48:00,
2013-02-12 02:49:00,31.0,25.6,29.96,WNW,299,9.0,18.0,80,0.00,,---,0.00,VWS V14.00,2013-02-12 07:49:00,
2013-02-12 02:53:00,31.0,25.6,29.96,WNW,288,3.0,18.0,80,0.00,,---,0.00,VWS V14.00,2013-02-12 07:53:00,
2013-02-12 02:55:00,31.0,25.6,29.96,West,281,9.0,18.0,80,0.00,,---,0.00,VWS V14.00,2013-02-12 07:55:00,
2013-02-12 02:58:00,31.0,25.6,29.96,West,277,10.0,12.0,80,0.00,,---,0.00,VWS V14.00,2013-02-12 07:58:00,
2013-02-12 02:59:00,31.0,25.6,29.96,West,269,2.0,12.0,80,0.00,,---,0.00,VWS V14.00,2013-02-12 07:59:00,
2013-02-12 03:00:00,31.0,25.6,29.96,NW,313,10.0,12.0,80,0.00,,---,0.00,VWS V14.00,2013-02-12 08:00:00,
2013-02-12 03:01:00,31.0,25.6,29.96,WNW,286,3.0,12.0,80,0.00,,---,0.00,VWS V14.00,2013-02-12 08:01:00,
2013-02-12 03:04:00,31.0,25.6,29.96,NW,304,7.0,12.0,80,0.00,,---,0.00,VWS V14.00,2013-02-12 08:04:00,
2013-02-12 03:05:00,31.0,25.6,29.96,WNW,288,6.0,12.0,80,0.00,,---,0.00,VWS V14.00,2013-02-12 08:05:00,
2013-02-12 03:06:00,31.0,25.6,29.96,WNW,284,3.0,12.0,80,0.00,,---,0.00,VWS V14.00,2013-02-12 08:06:00,
2013-02-12 03:07:00,31.1,25.7,29.97,WNW,290,7.0,12.0,80,0.00,,---,0.00,VWS V14.00,2013-02-12 08:07:00,
2013-02-12 03:10:00,31.0,25.6,29.97,WNW,296,11.0,17.0,80,0.00,,---,0.00,VWS V14.00,2013-02-12 08:10:00,
2013-02-12 03:11:00,31.0,25.6,29.97,WNW,290,9.0,17.0,80,0.00,,---,0.00,VWS V14.00,2013-02-12 08:11:00,
2013-02-12 03:13:00,31.0,25.3,29.97,WNW,291,3.0,17.0,79,0.00,,---,0.00,VWS V14.00,2013-02-12 08:13:00,
2013-02-12 03:14:00,31.1,25.4,29.97,West,280,10.0,17.0,79,0.00,,---,0.00,VWS V14.00,2013-02-12 08:14:00,
2013-02-12 03:16:00,31.0,25.3,29.97,NW,326,13.0,17.0,79,0.00,,---,0.00,VWS V14.00,2013-02-12 08:16:00,
2013-02-12 03:17:00,31.0,25.3,29.97,WNW,300,5.0,17.0,79,0.00,,---,0.00,VWS V14.00,2013-02-12 08:17:00,
2013-02-12 03:18:00,31.0,25.3,29.97,WNW,290,1.0,17.0,79,0.00,,---,0.00,VWS V14.00,2013-02-12 08:18:00,
2013-02-12 03:19:00,31.0,25.3,29.97,West,277,7.0,17.0,79,0.00,,---,0.00,VWS V14.00,2013-02-12 08:19:00,
2013-02-12 03:22:00,31.0,25.3,29.97,NW,309,10.0,17.0,79,0.00,,---,0.00,VWS V14.00,2013-02-12 08:22:00,
2013-02-12 03:23:00,31.0,25.3,29.97,WNW,301,5.0,17.0,79,0.00,,---,0.00,VWS V14.00,2013-02-12 08:23:00,
2013-02-12 03:25:00,30.9,25.2,29.97,West,269,3.0,17.0,79,0.00,,---,0.00,VWS V14.00,2013-02-12 08:25:00,
2013-02-12 03:27:00,31.0,25.3,29.97,WNW,301,6.0,17.0,79,0.00,,---,0.00,VWS V14.00,2013-02-12 08:27:00,
2013-02-12 03:28:00,31.0,25.3,29.97,West,281,8.0,17.0,79,0.00,,---,0.00,VWS V14.00,2013-02-12 08:28:00,
2013-02-12 03:30:00,31.0,25.3,29.97,WNW,300,3.0,11.0,79,0.00,,---,0.00,VWS V14.00,2013-02-12 08:30:00,
2013-02-12 03:32:00,31.0,25.3,29.97,WNW,301,2.0,12.0,79,0.00,,---,0.00,VWS V14.00,2013-02-12 08:32:00,
2013-02-12 03:33:00,31.0,25.3,29.97,WNW,286,6.0,12.0,79,0.00,,---,0.00,VWS V14.00,2013-02-12 08:33:00,
2013-02-12 03:34:00,31.0,25.3,29.97,West,275,1.0,12.0,79,0.00,,---,0.00,VWS V14.00,2013-02-12 08:34:00,
2013-02-12 03:35:00,31.0,25.3,29.97,WNW,300,3.0,12.0,79,0.00,,---,0.00,VWS V14.00,2013-02-12 08:35:00,
2013-02-12 03:38:00,30.9,25.2,29.97,WNW,294,9.0,12.0,79,0.00,,---,0.00,VWS V14.00,2013-02-12 08:38:00,
2013-02-12 03:39:00,30.9,25.2,29.97,WNW,300,6.0,13.0,79,0.00,,---,0.00,VWS V14.00,2013-02-12 08:39:00,
2013-02-12 03:40:00,30.9,25.2,29.97,WNW,298,6.0,13.0,79,0.00,,---,0.00,VWS V14.00,2013-02-12 08:40:00,
2013-02-12 03:42:00,30.9,25.2,29.97,WNW,300,7.0,13.0,79,0.00,,---,0.00,VWS V14.00,2013-02-12 08:42:00,
2013-02-12 03:44:00,30.8,25.1,29.97,WNW,297,4.0,13.0,79,0.00,,---,0.00,VWS V14.00,2013-02-12 08:44:00,
2013-02-12 03:45:00,30.8,25.1,29.97,WNW,288,5.0,13.0,79,0.00,,---,0.00,VWS V14.00,2013-02-12 08:45:00,
2013-02-12 03:48:00,30.8,25.1,29.97,WNW,292,13.0,13.0,79,0.00,,---,0.00,VWS V14.00,2013-02-12 08:48:00,
2013-02-12 03:50:00,30.8,25.1,29.97,West,265,2.0,13.0,79,0.00,,---,0.00,VWS V14.00,2013-02-12 08:50:00,
2013-02-12 03:51:00,30.9,25.2,29.97,WNW,296,11.0,16.0,79,0.00,,---,0.00,VWS V14.00,2013-02-12 08:51:00,
2013-02-12 03:54:00,30.8,25.1,29.97,NW,319,13.0,16.0,79,0.00,,---,0.00,VWS V14.00,2013-02-12 08:54:00,
2013-02-12 03:55:00,30.8,25.1,29.97,West,274,1.0,16.0,79,0.00,,---,0.00,VWS V14.00,2013-02-12 08:55:00,
2013-02-12 03:56:00,30.8,25.1,29.97,NW,318,3.0,16.0,79,0.00,,---,0.00,VWS V14.00,2013-02-12 08:56:00,
2013-02-12 03:58:00,30.8,25.1,29.97,WNW,296,3.0,16.0,79,0.00,,---,0.00,VWS V14.00,2013-02-12 08:58:00,
2013-02-12 04:00:00,30.8,25.4,29.98,West,275,3.0,6.0,80,0.00,,---,0.00,VWS V14.00,2013-02-12 09:00:00,
2013-02-12 04:01:00,30.8,25.4,29.98,West,272,4.0,6.0,80,0.00,,---,0.00,VWS V14.00,2013-02-12 09:01:00,
2013-02-12 04:04:00,30.7,25.3,29.98,West,263,0.0,13.0,80,0.00,,---,0.00,VWS V14.00,2013-02-12 09:04:00,
2013-02-12 04:06:00,30.7,25.3,29.98,WNW,293,16.0,16.0,80,0.00,,---,0.00,VWS V14.00,2013-02-12 09:06:00,
2013-02-12 04:07:00,30.7,25.3,29.98,NW,312,14.0,16.0,80,0.00,,---,0.00,VWS V14.00,2013-02-12 09:07:00,
2013-02-12 04:09:00,30.6,25.2,29.98,WNW,292,4.0,16.0,80,0.00,,---,0.00,VWS V14.00,2013-02-12 09:09:00,
2013-02-12 04:10:00,30.6,25.2,29.98,West,275,2.0,16.0,80,0.00,,---,0.00,VWS V14.00,2013-02-12 09:10:00,
2013-02-12 04:11:00,30.6,25.2,29.99,West,272,7.0,16.0,80,0.00,,---,0.00,VWS V14.00,2013-02-12 09:11:00,
2013-02-12 04:13:00,30.6,25.2,29.99,West,265,14.0,16.0,80,0.00,,---,0.00,VWS V14.00,2013-02-12 09:13:00,
2013-02-12 04:14:00,30.6,25.2,29.99,West,275,7.0,16.0,80,0.00,,---,0.00,VWS V14.00,2013-02-12 09:14:00,
2013-02-12 04:16:00,30.5,25.1,29.99,WNW,294,6.0,16.0,80,0.00,,---,0.00,VWS V14.00,2013-02-12 09:16:00,
2013-02-12 04:18:00,30.5,25.4,29.99,WNW,302,11.0,16.0,81,0.00,,---,0.00,VWS V14.00,2013-02-12 09:18:00,
2013-02-12 04:19:00,30.5,25.1,29.99,West,277,10.0,19.0,80,0.00,,---,0.00,VWS V14.00,2013-02-12 09:19:00,
2013-02-12 04:20:00,30.5,25.1,29.99,West,265,12.0,19.0,80,0.00,,---,0.00,VWS V14.00,2013-02-12 09:20:00,
2013-02-12 04:22:00,30.5,25.1,29.99,NW,309,5.0,19.0,80,0.00,,---,0.00,VWS V14.00,2013-02-12 09:22:00,
2013-02-12 04:23:00,30.5,25.1,29.99,West,278,8.0,19.0,80,0.00,,---,0.00,VWS V14.00,2013-02-12 09:23:00,
2013-02-12 04:26:00,30.5,25.4,29.99,WNW,293,8.0,19.0,81,0.00,,---,0.00,VWS V14.00,2013-02-12 09:26:00,
2013-02-12 04:28:00,30.5,25.4,29.99,NW,317,16.0,19.0,81,0.00,,---,0.00,VWS V14.00,2013-02-12 09:28:00,
2013-02-12 04:29:00,30.5,25.4,29.99,NW,309,12.0,16.0,81,0.00,,---,0.00,VWS V14.00,2013-02-12 09:29:00,
2013-02-12 04:32:00,30.5,25.4,29.99,West,277,0.0,16.0,81,0.00,,---,0.00,VWS V14.00,2013-02-12 09:32:00,
2013-02-12 04:35:00,30.5,25.4,29.99,WNW,301,6.0,16.0,81,0.00,,---,0.00,VWS V14.00,2013-02-12 09:35:00,
2013-02-12 04:36:00,30.5,25.4,29.99,WNW,291,10.0,16.0,81,0.00,,---,0.00,VWS V14.00,2013-02-12 09:36:00,
2013-02-12 04:39:00,30.5,25.1,29.99,WNW,297,15.0,18.0,80,0.00,,---,0.00,VWS V14.00,2013-02-12 09:39:00,
2013-02-12 04:40:00,30.5,25.1,29.99,West,277,17.0,18.0,80,0.00,,---,0.00,VWS V14.00,2013-02-12 09:40:00,
2013-02-12 04:42:00,30.5,25.1,29.99,WNW,284,7.0,18.0,80,0.00,,---,0.00,VWS V14.00,2013-02-12 09:42:00,
2013-02-12 04:43:00,30.5,25.1,29.99,West,281,2.0,18.0,80,0.00,,---,0.00,VWS V14.00,2013-02-12 09:43:00,
2013-02-12 04:44:00,30.5,25.1,29.99,WNW,302,9.0,18.0,80,0.00,,---,0.00,VWS V14.00,2013-02-12 09:44:00,
2013-02-12 04:46:00,30.5,25.1,29.99,NW,304,7.0,18.0,80,0.00,,---,0.00,VWS V14.00,2013-02-12 09:46:00,
2013-02-12 04:48:00,30.5,25.1,29.99,West,271,5.0,18.0,80,0.00,,---,0.00,VWS V14.00,2013-02-12 09:48:00,
2013-02-12 04:49:00,30.5,25.1,29.99,WNW,296,3.0,18.0,80,0.00,,---,0.00,VWS V14.00,2013-02-12 09:49:00,
2013-02-12 04:53:00,30.5,25.1,30.00,West,281,4.0,18.0,80,0.00,,---,0.00,VWS V14.00,2013-02-12 09:53:00,
2013-02-12 04:54:00,30.5,25.1,30.00,WNW,298,9.0,18.0,80,0.00,,---,0.00,VWS V14.00,2013-02-12 09:54:00,
2013-02-12 04:55:00,30.5,25.1,30.00,West,278,11.0,18.0,80,0.00,,---,0.00,VWS V14.00,2013-02-12 09:55:00,
2013-02-12 04:56:00,30.5,25.1,30.00,West,267,6.0,18.0,80,0.00,,---,0.00,VWS V14.00,2013-02-12 09:56:00,
2013-02-12 04:58:00,30.4,25.0,30.00,West,276,7.0,7.0,80,0.00,,---,0.00,VWS V14.00,2013-02-12 09:58:00,
2013-02-12 05:00:00,30.5,25.1,30.00,West,277,5.0,10.0,80,0.00,,---,0.00,VWS V14.00,2013-02-12 10:00:00,
2013-02-12 05:01:00,30.4,25.0,30.00,NW,305,3.0,13.0,80,0.00,,---,0.00,VWS V14.00,2013-02-12 10:01:00,
2013-02-12 05:02:00,30.4,25.0,30.00,West,260,3.0,13.0,80,0.00,,---,0.00,VWS V14.00,2013-02-12 10:02:00,
2013-02-12 05:06:00,30.4,25.0,30.00,WNW,284,6.0,18.0,80,0.00,,---,0.00,VWS V14.00,2013-02-12 10:06:00,
2013-02-12 05:07:00,30.4,25.0,30.00,NNW,331,3.0,18.0,80,0.00,,---,0.00,VWS V14.00,2013-02-12 10:07:00,
2013-02-12 05:11:00,30.4,25.0,30.00,NW,310,6.0,18.0,80,0.00,,---,0.00,VWS V14.00,2013-02-12 10:11:00,
2013-02-12 05:12:00,30.4,25.0,30.00,WNW,298,5.0,18.0,80,0.00,,---,0.00,VWS V14.00,2013-02-12 10:12:00,
2013-02-12 05:13:00,30.4,25.0,30.00,West,278,11.0,19.0,80,0.00,,---,0.00,VWS V14.00,2013-02-12 10:13:00,
2013-02-12 05:17:00,30.4,25.0,30.00,WNW,284,4.0,19.0,80,0.00,,---,0.00,VWS V14.00,2013-02-12 10:17:00,
2013-02-12 05:18:00,30.4,25.0,30.00,WNW,284,11.0,19.0,80,0.00,,---,0.00,VWS V14.00,2013-02-12 10:18:00,
2013-02-12 05:19:00,30.5,25.1,30.00,NW,306,10.0,19.0,80,0.00,,---,0.00,VWS V14.00,2013-02-12 10:19:00,
2013-02-12 05:23:00,30.5,24.8,30.00,WNW,283,15.0,19.0,79,0.00,,---,0.00,VWS V14.00,2013-02-12 10:23:00,
2013-02-12 05:24:00,30.5,24.8,30.00,West,265,14.0,19.0,79,0.00,,---,0.00,VWS V14.00,2013-02-12 10:24:00,
2013-02-12 05:25:00,30.5,24.8,30.00,WNW,297,9.0,19.0,79,0.00,,---,0.00,VWS V14.00,2013-02-12 10:25:00,
2013-02-12 05:29:00,30.5,24.8,30.00,WNW,296,10.0,11.0,79,0.00,,---,0.00,VWS V14.00,2013-02-12 10:29:00,
2013-02-12 05:30:00,30.6,24.9,30.00,WNW,303,8.0,11.0,79,0.00,,---,0.00,VWS V14.00,2013-02-12 10:30:00,
2013-02-12 05:31:00,30.6,24.9,30.00,West,273,9.0,11.0,79,0.00,,---,0.00,VWS V14.00,2013-02-12 10:31:00,
2013-02-12 05:34:00,30.6,24.9,30.00,WNW,284,2.0,13.0,79,0.00,,---,0.00,VWS V14.00,2013-02-12 10:34:00,
2013-02-12 05:36:00,30.6,24.9,30.00,WNW,302,14.0,19.0,79,0.00,,---,0.00,VWS V14.00,2013-02-12 10:36:00,
2013-02-12 05:37:00,30.6,24.9,30.00,WNW,302,11.0,20.0,79,0.00,,---,0.00,VWS V14.00,2013-02-12 10:37:00,
2013-02-12 05:40:00,30.6,24.6,30.00,WNW,297,5.0,20.0,78,0.00,,---,0.00,VWS V14.00,2013-02-12 10:40:00,
2013-02-12 05:42:00,30.6,24.6,30.00,WNW,292,10.0,20.0,78,0.00,,---,0.00,VWS V14.00,2013-02-12 10:42:00,
2013-02-12 05:43:00,30.6,24.6,30.01,West,270,9.0,20.0,78,0.00,,---,0.00,VWS V14.00,2013-02-12 10:43:00,
2013-02-12 05:45:00,30.6,24.6,30.01,WNW,282,3.0,20.0,78,0.00,,---,0.00,VWS V14.00,2013-02-12 10:45:00,
2013-02-12 05:49:00,30.6,24.6,30.01,WNW,303,9.0,20.0,78,0.00,,---,0.00,VWS V14.00,2013-02-12 10:49:00,
2013-02-12 05:50:00,30.6,24.6,30.01,West,275,15.0,20.0,78,0.00,,---,0.00,VWS V14.00,2013-02-12 10:50:00,
2013-02-12 05:51:00,30.6,24.6,30.01,West,263,9.0,20.0,78,0.00,,---,0.00,VWS V14.00,2013-02-12 10:51:00,
2013-02-12 05:54:00,30.6,24.6,30.01,WNW,283,4.0,20.0,78,0.00,,---,0.00,VWS V14.00,2013-02-12 10:54:00,
2013-02-12 05:56:00,30.5,24.5,30.01,WNW,290,10.0,20.0,78,0.00,,---,0.00,VWS V14.00,2013-02-12 10:56:00,
2013-02-12 05:57:00,30.5,24.5,30.01,NW,314,7.0,20.0,78,0.00,,---,0.00,VWS V14.00,2013-02-12 10:57:00,
2013-02-12 06:00:00,30.6,24.6,30.01,WNW,288,8.0,13.0,78,0.00,,---,0.00,VWS V14.00,2013-02-12 11:00:00,
2013-02-12 06:02:00,30.5,24.5,30.01,NNW,331,10.0,16.0,78,0.00,,---,0.00,VWS V14.00,2013-02-12 11:02:00,
2013-02-12 06:03:00,30.5,24.5,30.01,NW,306,13.0,16.0,78,0.00,,---,0.00,VWS V14.00,2013-02-12 11:03:00,
2013-02-12 06:06:00,30.5,24.5,30.01,NW,321,13.0,16.0,78,0.00,,---,0.00,VWS V14.00,2013-02-12 11:06:00,
2013-02-12 06:07:00,30.5,24.5,30.01,NNW,329,10.0,16.0,78,0.00,,---,0.00,VWS V14.00,2013-02-12 11:07:00,
2013-02-12 06:11:00,30.5,24.5,30.02,WNW,290,6.0,16.0,78,0.00,,---,0.00,VWS V14.00,2013-02-12 11:11:00,
2013-02-12 06:13:00,30.5,24.5,30.01,NW,313,6.0,16.0,78,0.00,,---,0.00,VWS V14.00,2013-02-12 11:13:00,
2013-02-12 06:14:00,30.5,24.5,30.01,WNW,289,9.0,16.0,78,0.00,,---,0.00,VWS V14.00,2013-02-12 11:14:00,
2013-02-12 06:16:00,30.4,24.4,30.01,NNW,344,9.0,16.0,78,0.00,,---,0.00,VWS V14.00,2013-02-12 11:16:00,
2013-02-12 06:19:00,30.4,24.4,30.01,NNW,338,9.0,16.0,78,0.00,,---,0.00,VWS V14.00,2013-02-12 11:19:00,
2013-02-12 06:20:00,30.4,24.4,30.01,NW,308,7.0,16.0,78,0.00,,---,0.00,VWS V14.00,2013-02-12 11:20:00,
2013-02-12 06:22:00,30.4,24.4,30.01,NW,311,12.0,16.0,78,0.00,,---,0.00,VWS V14.00,2013-02-12 11:22:00,
2013-02-12 06:25:00,30.4,24.7,30.01,West,281,3.0,16.0,79,0.00,,---,0.00,VWS V14.00,2013-02-12 11:25:00,
2013-02-12 06:26:00,30.4,24.7,30.02,WNW,283,3.0,16.0,79,0.00,,---,0.00,VWS V14.00,2013-02-12 11:26:00,
2013-02-12 06:27:00,30.4,24.7,30.02,WNW,289,6.0,16.0,79,0.00,,---,0.00,VWS V14.00,2013-02-12 11:27:00,
2013-02-12 06:31:00,30.4,24.7,30.02,WNW,283,5.0,11.0,79,0.00,,---,0.00,VWS V14.00,2013-02-12 11:31:00,
2013-02-12 06:33:00,30.4,24.7,30.02,WNW,302,7.0,11.0,79,0.00,,---,0.00,VWS V14.00,2013-02-12 11:33:00,
2013-02-12 06:37:00,30.5,24.8,30.01,WNW,286,9.0,14.0,79,0.00,,---,0.00,VWS V14.00,2013-02-12 11:37:00,
2013-02-12 06:38:00,30.5,24.8,30.01,WNW,300,6.0,15.0,79,0.00,,---,0.00,VWS V14.00,2013-02-12 11:38:00,
2013-02-12 06:39:00,30.5,24.8,30.01,West,280,9.0,15.0,79,0.00,,---,0.00,VWS V14.00,2013-02-12 11:39:00,
2013-02-12 06:40:00,30.5,24.8,30.01,WNW,294,17.0,17.0,79,0.00,,---,0.00,VWS V14.00,2013-02-12 11:40:00,
2013-02-12 06:42:00,30.4,25.0,30.02,NW,314,10.0,17.0,80,0.00,,---,0.00,VWS V14.00,2013-02-12 11:42:00,
2013-02-12 06:45:00,30.3,24.9,30.02,NW,311,5.0,17.0,80,0.00,,---,0.00,VWS V14.00,2013-02-12 11:45:00,
2013-02-12 06:46:00,30.3,24.9,30.02,WNW,282,2.0,17.0,80,0.00,,---,0.00,VWS V14.00,2013-02-12 11:46:00,
2013-02-12 06:50:00,30.4,25.0,30.02,WSW,256,2.0,17.0,80,0.00,,---,0.00,VWS V14.00,2013-02-12 11:50:00,
2013-02-12 06:51:00,30.3,24.9,30.02,NW,310,10.0,17.0,80,0.00,,---,0.00,VWS V14.00,2013-02-12 11:51:00,
2013-02-12 06:52:00,30.3,24.9,30.02,WNW,292,7.0,17.0,80,0.00,,---,0.00,VWS V14.00,2013-02-12 11:52:00,
2013-02-12 06:55:00,30.3,24.9,30.02,WNW,291,11.0,17.0,80,0.00,,---,0.00,VWS V14.00,2013-02-12 11:55:00,
2013-02-12 06:58:00,30.3,24.9,30.02,NW,322,6.0,20.0,80,0.00,,---,0.00,VWS V14.00,2013-02-12 11:58:00,
2013-02-12 07:00:00,30.2,24.8,30.02,NNW,330,7.0,11.0,80,0.00,,---,0.00,VWS V14.00,2013-02-12 12:00:00,
2013-02-12 07:01:00,30.2,24.8,30.02,NW,325,7.0,11.0,80,0.00,,---,0.00,VWS V14.00,2013-02-12 12:01:00,
2013-02-12 07:04:00,30.1,24.7,30.02,NW,323,12.0,16.0,80,0.00,,---,0.00,VWS V14.00,2013-02-12 12:04:00,
2013-02-12 07:06:00,30.1,24.7,30.02,WNW,298,5.0,17.0,80,0.00,,---,0.00,VWS V14.00,2013-02-12 12:06:00,
2013-02-12 07:07:00,30.1,24.7,30.02,NNW,330,6.0,17.0,80,0.00,,---,0.00,VWS V14.00,2013-02-12 12:07:00,
2013-02-12 07:09:00,30.0,24.6,30.02,NW,313,14.0,17.0,80,0.00,,---,0.00,VWS V14.00,2013-02-12 12:09:00,
2013-02-12 07:12:00,30.0,24.6,30.02,NNW,328,16.0,17.0,80,0.00,,---,0.00,VWS V14.00,2013-02-12 12:12:00,
2013-02-12 07:14:00,30.0,24.6,30.02,NNW,341,11.0,17.0,80,0.00,,---,0.00,VWS V14.00,2013-02-12 12:14:00,
2013-02-12 07:17:00,29.9,24.5,30.03,WNW,294,2.0,17.0,80,0.00,,---,0.00,VWS V14.00,2013-02-12 12:17:00,
2013-02-12 07:19:00,30.0,24.6,30.02,WNW,294,12.0,17.0,80,0.00,,---,0.00,VWS V14.00,2013-02-12 12:19:00,
2013-02-12 07:20:00,30.0,24.6,30.02,WNW,296,7.0,17.0,80,0.00,,---,0.00,VWS V14.00,2013-02-12 12:20:00,
2013-02-12 07:21:00,30.0,24.6,30.02,WNW,301,5.0,17.0,80,0.00,,---,0.00,VWS V14.00,2013-02-12 12:21:00,
2013-02-12 07:22:00,30.0,24.6,30.02,WNW,298,4.0,17.0,80,0.00,,---,0.00,VWS V14.00,2013-02-12 12:22:00,
2013-02-12 07:24:00,30.0,24.6,30.02,WNW,296,2.0,17.0,80,0.00,,---,0.00,VWS V14.00,2013-02-12 12:24:00,
2013-02-12 07:26:00,30.1,24.7,30.02,WNW,302,4.0,17.0,80,0.00,,---,0.00,VWS V14.00,2013-02-12 12:26:00,
2013-02-12 07:27:00,30.1,25.0,30.02,WNW,302,3.0,17.0,81,0.00,,---,0.00,VWS V14.00,2013-02-12 12:27:00,
2013-02-12 07:28:00,30.1,25.0,30.02,WNW,302,3.0,17.0,81,0.00,,---,0.00,VWS V14.00,2013-02-12 12:28:00,
2013-02-12 07:32:00,30.1,25.0,30.02,WNW,283,4.0,10.0,81,0.00,,---,0.00,VWS V14.00,2013-02-12 12:32:00,
2013-02-12 07:34:00,30.1,25.0,30.02,WNW,286,6.0,10.0,81,0.00,,---,0.00,VWS V14.00,2013-02-12 12:34:00,
2013-02-12 07:37:00,30.1,25.0,30.02,West,281,10.0,10.0,81,0.00,,---,0.00,VWS V14.00,2013-02-12 12:37:00,
2013-02-12 07:39:00,30.2,25.1,30.02,WNW,284,3.0,10.0,81,0.00,,---,0.00,VWS V14.00,2013-02-12 12:39:00,
2013-02-12 07:42:00,30.1,25.0,30.03,WNW,302,6.0,13.0,81,0.00,,---,0.00,VWS V14.00,2013-02-12 12:42:00,
2013-02-12 07:44:00,30.1,25.0,30.02,West,281,7.0,13.0,81,0.00,,---,0.00,VWS V14.00,2013-02-12 12:44:00,
2013-02-12 07:45:00,30.1,25.0,30.02,West,269,5.0,13.0,81,0.00,,---,0.00,VWS V14.00,2013-02-12 12:45:00,
2013-02-12 07:47:00,30.1,25.0,30.02,West,276,4.0,13.0,81,0.00,,---,0.00,VWS V14.00,2013-02-12 12:47:00,
2013-02-12 07:48:00,30.1,25.0,30.02,NW,312,10.0,13.0,81,0.00,,---,0.00,VWS V14.00,2013-02-12 12:48:00,
2013-02-12 07:52:00,30.1,25.0,30.02,NW,314,10.0,13.0,81,0.00,,---,0.00,VWS V14.00,2013-02-12 12:52:00,
2013-02-12 07:53:00,30.1,25.0,30.02,WNW,286,5.0,13.0,81,0.00,,---,0.00,VWS V14.00,2013-02-12 12:53:00,
2013-02-12 07:54:00,30.1,25.0,30.02,West,275,6.0,13.0,81,0.00,,---,0.00,VWS V14.00,2013-02-12 12:54:00,
2013-02-12 07:55:00,30.1,25.0,30.02,West,274,5.0,13.0,81,0.00,,---,0.00,VWS V14.00,2013-02-12 12:55:00,
2013-02-12 07:58:00,30.1,25.0,30.02,West,272,5.0,13.0,81,0.00,,---,0.00,VWS V14.00,2013-02-12 12:58:00,
2013-02-12 08:00:00,30.0,24.9,30.02,West,272,8.0,10.0,81,0.00,,---,0.00,VWS V14.00,2013-02-12 13:00:00,
2013-02-12 08:03:00,30.0,24.9,30.02,WNW,283,4.0,10.0,81,0.00,,---,0.00,VWS V14.00,2013-02-12 13:03:00,
2013-02-12 08:05:00,30.0,24.9,30.02,WNW,290,2.0,10.0,81,0.00,,---,0.00,VWS V14.00,2013-02-12 13:05:00,
2013-02-12 08:10:00,30.0,24.9,30.02,West,272,4.0,11.0,81,0.00,,---,0.00,VWS V14.00,2013-02-12 13:10:00,
2013-02-12 08:11:00,30.0,24.9,30.02,West,270,10.0,11.0,81,0.00,,---,0.00,VWS V14.00,2013-02-12 13:11:00,
2013-02-12 08:12:00,30.0,24.9,30.02,WNW,295,7.0,11.0,81,0.00,,---,0.00,VWS V14.00,2013-02-12 13:12:00,
2013-02-12 08:13:00,30.0,24.9,30.02,WSW,256,6.0,11.0,81,0.00,,---,0.00,VWS V14.00,2013-02-12 13:13:00,
2013-02-12 08:16:00,29.9,24.8,30.02,WNW,296,1.0,14.0,81,0.00,,---,0.00,VWS V14.00,2013-02-12 13:16:00,
2013-02-12 08:17:00,29.9,24.8,30.02,West,271,1.0,14.0,81,0.00,,---,0.00,VWS V14.00,2013-02-12 13:17:00,
2013-02-12 08:18:00,29.9,24.8,30.02,West,271,1.0,14.0,81,0.00,,---,0.00,VWS V14.00,2013-02-12 13:18:00,
2013-02-12 08:19:00,29.9,24.8,30.02,West,271,2.0,14.0,81,0.00,,---,0.00,VWS V14.00,2013-02-12 13:19:00,
2013-02-12 08:22:00,30.0,24.9,30.02,WNW,282,2.0,14.0,81,0.00,,---,0.00,VWS V14.00,2013-02-12 13:22:00,
2013-02-12 08:23:00,30.0,24.9,30.02,West,281,4.0,14.0,81,0.00,,---,0.00,VWS V14.00,2013-02-12 13:23:00,
2013-02-12 08:24:00,30.0,24.9,30.02,WNW,302,9.0,14.0,81,0.00,,---,0.00,VWS V14.00,2013-02-12 13:24:00,
2013-02-12 08:26:00,30.0,24.9,30.02,West,269,9.0,14.0,81,0.00,,---,0.00,VWS V14.00,2013-02-12 13:26:00,
2013-02-12 08:28:00,30.0,24.9,30.02,WNW,290,5.0,14.0,81,0.00,,---,0.00,VWS V14.00,2013-02-12 13:28:00,
2013-02-12 08:29:00,30.1,25.0,30.03,West,279,5.0,7.0,81,0.00,,---,0.00,VWS V14.00,2013-02-12 13:29:00,
2013-02-12 08:32:00,30.1,25.3,30.03,WNW,291,4.0,7.0,82,0.00,,---,0.00,VWS V14.00,2013-02-12 13:32:00,
2013-02-12 08:33:00,30.1,25.3,30.03,WNW,288,4.0,7.0,82,0.00,,---,0.00,VWS V14.00,2013-02-12 13:33:00,
2013-02-12 08:36:00,30.1,25.3,30.03,WNW,301,6.0,9.0,82,0.00,,---,0.00,VWS V14.00,2013-02-12 13:36:00,
2013-02-12 08:37:00,30.1,25.3,30.03,NW,306,5.0,9.0,82,0.00,,---,0.00,VWS V14.00,2013-02-12 13:37:00,
2013-02-12 08:41:00,30.1,25.3,30.03,WNW,292,8.0,11.0,82,0.00,,---,0.00,VWS V14.00,2013-02-12 13:41:00,
2013-02-12 08:43:00,30.1,25.3,30.03,NW,304,5.0,11.0,82,0.00,,---,0.00,VWS V14.00,2013-02-12 13:43:00,
2013-02-12 08:45:00,30.2,25.4,30.03,WNW,299,6.0,11.0,82,0.00,,---,0.00,VWS V14.00,2013-02-12 13:45:00,
2013-02-12 08:47:00,30.2,25.4,30.03,WNW,298,3.0,11.0,82,0.00,,---,0.00,VWS V14.00,2013-02-12 13:47:00,
2013-02-12 08:48:00,30.2,25.4,30.03,WNW,298,3.0,11.0,82,0.00,,---,0.00,VWS V14.00,2013-02-12 13:48:00,
2013-02-12 08:49:00,30.2,25.4,30.03,West,280,4.0,11.0,82,0.00,,---,0.00,VWS V14.00,2013-02-12 13:49:00,
2013-02-12 08:51:00,30.2,25.4,30.04,NW,304,5.0,11.0,82,0.00,,---,0.00,VWS V14.00,2013-02-12 13:51:00,
2013-02-12 08:54:00,30.3,25.5,30.04,WNW,296,2.0,11.0,82,0.00,,---,0.00,VWS V14.00,2013-02-12 13:54:00,
2013-02-12 08:56:00,30.2,25.4,30.03,WNW,297,2.0,11.0,82,0.00,,---,0.00,VWS V14.00,2013-02-12 13:56:00,
2013-02-12 08:58:00,30.2,25.4,30.03,West,278,7.0,11.0,82,0.00,,---,0.00,VWS V14.00,2013-02-12 13:58:00,
2013-02-12 08:59:00,30.2,25.4,30.04,WNW,288,6.0,8.0,82,0.00,,---,0.00,VWS V14.00,2013-02-12 13:59:00,
2013-02-12 09:00:00,30.2,25.4,30.04,WNW,285,6.0,13.0,82,0.00,,---,0.00,VWS V14.00,2013-02-12 14:00:00,
2013-02-12 09:02:00,30.2,25.4,30.04,West,261,5.0,13.0,82,0.00,,---,0.00,VWS V14.00,2013-02-12 14:02:00,
2013-02-12 09:04:00,30.2,25.4,30.04,West,261,4.0,13.0,82,0.00,,---,0.00,VWS V14.00,2013-02-12 14:04:00,
2013-02-12 09:05:00,30.2,25.4,30.04,NW,311,4.0,13.0,82,0.00,,---,0.00,VWS V14.00,2013-02-12 14:05:00,
2013-02-12 09:07:00,30.2,25.4,30.03,WNW,292,6.0,13.0,82,0.00,,---,0.00,VWS V14.00,2013-02-12 14:07:00,
2013-02-12 09:09:00,30.1,25.3,30.03,WNW,300,5.0,13.0,82,0.00,,---,0.00,VWS V14.00,2013-02-12 14:09:00,
2013-02-12 09:11:00,30.1,25.3,30.03,WNW,300,2.0,13.0,82,0.00,,---,0.00,VWS V14.00,2013-02-12 14:11:00,
2013-02-12 09:14:00,30.1,25.3,30.03,WNW,284,6.0,13.0,82,0.00,,---,0.00,VWS V14.00,2013-02-12 14:14:00,
2013-02-12 09:15:00,30.1,25.3,30.03,West,281,4.0,13.0,82,0.00,,---,0.00,VWS V14.00,2013-02-12 14:15:00,
2013-02-12 09:16:00,30.1,25.3,30.03,West,280,5.0,13.0,82,0.00,,---,0.00,VWS V14.00,2013-02-12 14:16:00,
2013-02-12 09:17:00,30.1,25.3,30.04,West,276,3.0,13.0,82,0.00,,---,0.00,VWS V14.00,2013-02-12 14:17:00,
2013-02-12 09:19:00,30.1,25.3,30.04,WNW,286,4.0,13.0,82,0.00,,---,0.00,VWS V14.00,2013-02-12 14:19:00,
2013-02-12 09:23:00,30.1,25.3,30.04,NW,309,5.0,13.0,82,0.00,,---,0.00,VWS V14.00,2013-02-12 14:23:00,
2013-02-12 09:24:00,30.1,25.3,30.04,NW,308,4.0,13.0,82,0.00,,---,0.00,VWS V14.00,2013-02-12 14:24:00,
2013-02-12 09:25:00,30.1,25.3,30.04,NW,313,4.0,13.0,82,0.00,,---,0.00,VWS V14.00,2013-02-12 14:25:00,
2013-02-12 09:26:00,30.1,25.0,30.04,NW,311,5.0,13.0,81,0.00,,---,0.00,VWS V14.00,2013-02-12 14:26:00,
2013-02-12 09:29:00,30.2,25.4,30.03,West,279,5.0,6.0,82,0.00,,---,0.00,VWS V14.00,2013-02-12 14:29:00,
2013-02-12 09:31:00,30.2,25.4,30.04,NW,306,6.0,6.0,82,0.00,,---,0.00,VWS V14.00,2013-02-12 14:31:00,
2013-02-12 09:32:00,30.2,25.4,30.04,NW,309,9.0,12.0,82,0.00,,---,0.00,VWS V14.00,2013-02-12 14:32:00,
2013-02-12 09:36:00,30.3,25.5,30.05,NW,319,10.0,12.0,82,0.00,,---,0.00,VWS V14.00,2013-02-12 14:36:00,
2013-02-12 09:37:00,30.3,25.2,30.05,WNW,296,5.0,12.0,81,0.00,,---,0.00,VWS V14.00,2013-02-12 14:37:00,
2013-02-12 09:38:00,30.2,25.1,30.05,WNW,294,4.0,12.0,81,0.00,,---,0.00,VWS V14.00,2013-02-12 14:38:00,
2013-02-12 09:39:00,30.3,25.2,30.05,WNW,282,4.0,12.0,81,0.00,,---,0.00,VWS V14.00,2013-02-12 14:39:00,
2013-02-12 09:42:00,30.3,25.2,30.05,West,273,3.0,12.0,81,0.00,,---,0.00,VWS V14.00,2013-02-12 14:42:00,
2013-02-12 09:43:00,30.3,25.5,30.05,West,267,6.0,12.0,82,0.00,,---,0.00,VWS V14.00,2013-02-12 14:43:00,
2013-02-12 09:44:00,30.3,25.5,30.05,WNW,284,4.0,12.0,82,0.00,,---,0.00,VWS V14.00,2013-02-12 14:44:00,
2013-02-12 09:46:00,30.3,25.5,30.04,West,276,4.0,12.0,82,0.00,,---,0.00,VWS V14.00,2013-02-12 14:46:00,
2013-02-12 09:48:00,30.3,25.2,30.04,West,281,2.0,12.0,81,0.00,,---,0.00,VWS V14.00,2013-02-12 14:48:00,
2013-02-12 09:50:00,30.3,25.2,30.04,West,269,5.0,12.0,81,0.00,,---,0.00,VWS V14.00,2013-02-12 14:50:00,
2013-02-12 09:54:00,30.3,25.2,30.04,West,274,12.0,13.0,81,0.00,,---,0.00,VWS V14.00,2013-02-12 14:54:00,
2013-02-12 09:55:00,30.2,25.1,30.04,West,266,9.0,14.0,81,0.00,,---,0.00,VWS V14.00,2013-02-12 14:55:00,
2013-02-12 09:57:00,30.2,24.8,30.05,West,271,6.0,14.0,80,0.00,,---,0.00,VWS V14.00,2013-02-12 14:57:00,
2013-02-12 09:59:00,30.1,24.7,30.05,WNW,290,3.0,10.0,80,0.00,,---,0.00,VWS V14.00,2013-02-12 14:59:00,
2013-02-12 10:00:00,30.2,24.8,30.05,WNW,288,4.0,10.0,80,0.00,,---,0.00,VWS V14.00,2013-02-12 15:00:00,
2013-02-12 10:02:00,30.2,25.1,30.04,WNW,285,2.0,10.0,81,0.00,,---,0.00,VWS V14.00,2013-02-12 15:02:00,
2013-02-12 10:04:00,30.2,25.1,30.04,WNW,286,2.0,10.0,81,0.00,,---,0.00,VWS V14.00,2013-02-12 15:04:00,
2013-02-12 10:05:00,30.2,25.1,30.05,West,281,4.0,10.0,81,0.00,,---,0.00,VWS V14.00,2013-02-12 15:05:00,
2013-02-12 10:06:00,30.3,25.2,30.04,WNW,285,5.0,10.0,81,0.00,,---,0.00,VWS V14.00,2013-02-12 15:06:00,
2013-02-12 10:07:00,30.3,25.2,30.04,WNW,290,4.0,10.0,81,0.00,,---,0.00,VWS V14.00,2013-02-12 15:07:00,
2013-02-12 10:10:00,30.3,25.2,30.04,WNW,291,4.0,10.0,81,0.00,,---,0.00,VWS V14.00,2013-02-12 15:10:00,
2013-02-12 10:11:00,30.3,25.2,30.04,WNW,288,1.0,14.0,81,0.00,,---,0.00,VWS V14.00,2013-02-12 15:11:00,
2013-02-12 10:12:00,30.3,25.2,30.04,West,271,5.0,14.0,81,0.00,,---,0.00,VWS V14.00,2013-02-12 15:12:00,
2013-02-12 10:13:00,30.3,25.2,30.05,West,272,7.0,14.0,81,0.00,,---,0.00,VWS V14.00,2013-02-12 15:13:00,
2013-02-12 10:15:00,30.3,25.2,30.05,West,273,8.0,14.0,81,0.00,,---,0.00,VWS V14.00,2013-02-12 15:15:00,
2013-02-12 10:16:00,30.3,24.9,30.05,West,268,4.0,14.0,80,0.00,,---,0.00,VWS V14.00,2013-02-12 15:16:00,
2013-02-12 10:20:00,30.3,25.2,30.05,West,280,13.0,14.0,81,0.00,,---,0.00,VWS V14.00,2013-02-12 15:20:00,
2013-02-12 10:21:00,30.3,25.2,30.05,WNW,285,8.0,14.0,81,0.00,,---,0.00,VWS V14.00,2013-02-12 15:21:00,
2013-02-12 10:22:00,30.3,25.2,30.05,WNW,286,11.0,14.0,81,0.00,,---,0.00,VWS V14.00,2013-02-12 15:22:00,
2013-02-12 10:25:00,30.3,25.2,30.05,WSW,257,5.0,14.0,81,0.00,,---,0.00,VWS V14.00,2013-02-12 15:25:00,
2013-02-12 10:26:00,30.3,25.2,30.05,West,263,12.0,14.0,81,0.00,,---,0.00,VWS V14.00,2013-02-12 15:26:00,
2013-02-12 10:28:00,30.3,25.2,30.05,West,274,6.0,7.0,81,0.00,,---,0.00,VWS V14.00,2013-02-12 15:28:00,
2013-02-12 10:30:00,30.2,25.1,30.05,WSW,241,1.0,9.0,81,0.00,,---,0.00,VWS V14.00,2013-02-12 15:30:00,
2013-02-12 10:31:00,30.2,25.1,30.05,West,269,2.0,9.0,81,0.00,,---,0.00,VWS V14.00,2013-02-12 15:31:00,
2013-02-12 10:32:00,30.1,25.3,30.05,West,267,6.0,9.0,82,0.00,,---,0.00,VWS V14.00,2013-02-12 15:32:00,
2013-02-12 10:33:00,30.1,25.0,30.05,WSW,255,2.0,9.0,81,0.00,,---,0.00,VWS V14.00,2013-02-12 15:33:00,
2013-02-12 10:36:00,30.1,25.3,30.04,WSW,255,1.0,9.0,82,0.00,,---,0.00,VWS V14.00,2013-02-12 15:36:00,
2013-02-12 10:37:00,30.1,25.3,30.04,WSW,257,2.0,9.0,82,0.00,,---,0.00,VWS V14.00,2013-02-12 15:37:00,
2013-02-12 10:38:00,30.2,25.4,30.04,West,280,5.0,9.0,82,0.00,,---,0.00,VWS V14.00,2013-02-12 15:38:00,
2013-02-12 10:39:00,30.2,25.4,30.04,WNW,284,3.0,9.0,82,0.00,,---,0.00,VWS V14.00,2013-02-12 15:39:00,
2013-02-12 10:41:00,30.2,25.4,30.04,WSW,257,4.0,11.0,82,0.00,,---,0.00,VWS V14.00,2013-02-12 15:41:00,
2013-02-12 10:43:00,30.2,25.4,30.04,West,270,7.0,12.0,82,0.00,,---,0.00,VWS V14.00,2013-02-12 15:43:00,
2013-02-12 10:44:00,30.2,25.4,30.04,West,273,5.0,12.0,82,0.00,,---,0.00,VWS V14.00,2013-02-12 15:44:00,
2013-02-12 10:46:00,30.2,25.4,30.04,West,274,6.0,12.0,82,0.00,,---,0.00,VWS V14.00,2013-02-12 15:46:00,
2013-02-12 10:48:00,30.1,25.3,30.04,West,267,10.0,12.0,82,0.00,,---,0.00,VWS V14.00,2013-02-12 15:48:00,
2013-02-12 10:49:00,30.1,25.3,30.04,West,277,10.0,12.0,82,0.00,,---,0.00,VWS V14.00,2013-02-12 15:49:00,
2013-02-12 10:50:00,30.1,25.3,30.04,West,272,3.0,12.0,82,0.00,,---,0.00,VWS V14.00,2013-02-12 15:50:00,
2013-02-12 10:52:00,30.1,25.3,30.04,WNW,290,6.0,17.0,82,0.00,,---,0.00,VWS V14.00,2013-02-12 15:52:00,
2013-02-12 10:53:00,30.1,25.3,30.04,WNW,292,5.0,17.0,82,0.00,,---,0.00,VWS V14.00,2013-02-12 15:53:00,
2013-02-12 10:55:00,30.1,25.3,30.03,NW,314,9.0,17.0,82,0.00,,---,0.00,VWS V14.00,2013-02-12 15:55:00,
2013-02-12 10:57:00,30.1,25.3,30.03,West,272,13.0,17.0,82,0.00,,---,0.00,VWS V14.00,2013-02-12 15:57:00,
2013-02-12 10:59:00,30.1,25.3,30.03,WNW,288,10.0,14.0,82,0.00,,---,0.00,VWS V14.00,2013-02-12 15:59:00,
2013-02-12 11:02:00,30.0,25.2,30.04,West,280,6.0,14.0,82,0.00,,---,0.00,VWS V14.00,2013-02-12 16:02:00,
2013-02-12 11:03:00,30.1,25.3,30.04,WNW,284,12.0,14.0,82,0.00,,---,0.00,VWS V14.00,2013-02-12 16:03:00,
2013-02-12 11:06:00,30.1,25.3,30.04,WNW,287,7.0,16.0,82,0.00,,---,0.00,VWS V14.00,2013-02-12 16:06:00,
2013-02-12 11:08:00,30.0,25.2,30.04,WNW,298,3.0,16.0,82,0.00,,---,0.00,VWS V14.00,2013-02-12 16:08:00,
2013-02-12 11:09:00,30.0,24.9,30.04,WNW,283,6.0,16.0,81,0.00,,---,0.00,VWS V14.00,2013-02-12 16:09:00,
2013-02-12 11:11:00,29.9,24.8,30.04,WNW,292,4.0,16.0,81,0.00,,---,0.00,VWS V14.00,2013-02-12 16:11:00,
2013-02-12 11:14:00,29.9,24.8,30.05,WNW,286,1.0,16.0,81,0.00,,---,0.00,VWS V14.00,2013-02-12 16:14:00,
2013-02-12 11:15:00,30.0,24.9,30.04,WNW,286,1.0,16.0,81,0.00,,---,0.00,VWS V14.00,2013-02-12 16:15:00,
2013-02-12 11:19:00,30.1,25.0,30.04,West,275,2.0,16.0,81,0.00,,---,0.00,VWS V14.00,2013-02-12 16:19:00,
2013-02-12 11:20:00,30.2,25.1,30.04,West,275,3.0,16.0,81,0.00,,---,0.00,VWS V14.00,2013-02-12 16:20:00,
2013-02-12 11:21:00,30.2,25.1,30.04,West,279,5.0,16.0,81,0.00,,---,0.00,VWS V14.00,2013-02-12 16:21:00,
2013-02-12 11:22:00,30.2,25.1,30.04,West,280,1.0,16.0,81,0.00,,---,0.00,VWS V14.00,2013-02-12 16:22:00,
2013-02-12 11:24:00,30.3,25.2,30.04,West,281,3.0,16.0,81,0.00,,---,0.00,VWS V14.00,2013-02-12 16:24:00,
2013-02-12 11:26:00,30.3,25.2,30.04,West,280,9.0,16.0,81,0.00,,---,0.00,VWS V14.00,2013-02-12 16:26:00,
2013-02-12 11:28:00,30.4,25.3,30.04,West,275,6.0,16.0,81,0.00,,---,0.00,VWS V14.00,2013-02-12 16:28:00,
2013-02-12 11:29:00,30.4,25.3,30.04,West,269,10.0,13.0,81,0.00,,---,0.00,VWS V14.00,2013-02-12 16:29:00,
2013-02-12 11:30:00,30.3,25.2,30.04,WNW,288,7.0,13.0,81,0.00,,---,0.00,VWS V14.00,2013-02-12 16:30:00,
2013-02-12 11:33:00,30.3,25.2,30.04,NW,309,2.0,13.0,81,0.00,,---,0.00,VWS V14.00,2013-02-12 16:33:00,
2013-02-12 11:34:00,30.4,25.3,30.03,NW,310,4.0,13.0,81,0.00,,---,0.00,VWS V14.00,2013-02-12 16:34:00,
2013-02-12 11:35:00,30.4,25.3,30.03,NW,310,3.0,13.0,81,0.00,,---,0.00,VWS V14.00,2013-02-12 16:35:00,
2013-02-12 11:38:00,30.3,25.2,30.03,WNW,300,7.0,13.0,81,0.00,,---,0.00,VWS V14.00,2013-02-12 16:38:00,
2013-02-12 11:39:00,30.4,25.3,30.03,West,281,5.0,13.0,81,0.00,,---,0.00,VWS V14.00,2013-02-12 16:39:00,
2013-02-12 11:40:00,30.4,25.3,30.03,NW,315,5.0,13.0,81,0.00,,---,0.00,VWS V14.00,2013-02-12 16:40:00,
2013-02-12 11:42:00,30.5,25.4,30.03,WNW,302,2.0,13.0,81,0.00,,---,0.00,VWS V14.00,2013-02-12 16:42:00,
2013-02-12 11:44:00,30.6,25.5,30.03,WNW,285,9.0,13.0,81,0.00,,---,0.00,VWS V14.00,2013-02-12 16:44:00,
2013-02-12 11:46:00,30.6,25.5,30.03,West,269,5.0,13.0,81,0.00,,---,0.00,VWS V14.00,2013-02-12 16:46:00,
2013-02-12 11:47:00,30.6,25.2,30.03,WNW,287,4.0,13.0,80,0.00,,---,0.00,VWS V14.00,2013-02-12 16:47:00,
2013-02-12 11:49:00,30.6,25.2,30.03,WNW,296,9.0,13.0,80,0.00,,---,0.00,VWS V14.00,2013-02-12 16:49:00,
2013-02-12 11:50:00,30.6,25.2,30.03,West,260,6.0,13.0,80,0.00,,---,0.00,VWS V14.00,2013-02-12 16:50:00,
2013-02-12 11:51:00,30.6,25.2,30.02,WSW,250,10.0,13.0,80,0.00,,---,0.00,VWS V14.00,2013-02-12 16:51:00,
2013-02-12 11:53:00,30.5,25.1,30.03,West,266,5.0,13.0,80,0.00,,---,0.00,VWS V14.00,2013-02-12 16:53:00,
2013-02-12 11:54:00,30.5,25.1,30.03,WNW,290,7.0,13.0,80,0.00,,---,0.00,VWS V14.00,2013-02-12 16:54:00,
2013-02-12 11:55:00,30.5,25.1,30.03,NW,313,9.0,13.0,80,0.00,,---,0.00,VWS V14.00,2013-02-12 16:55:00,
2013-02-12 11:56:00,30.5,25.1,30.03,WNW,298,2.0,13.0,80,0.00,,---,0.00,VWS V14.00,2013-02-12 16:56:00,
2013-02-12 11:59:00,30.6,25.2,30.03,WNW,284,8.0,10.0,80,0.00,,---,0.00,VWS V14.00,2013-02-12 16:59:00,
2013-02-12 12:00:00,30.6,25.2,30.04,West,269,6.0,11.0,80,0.00,,---,0.00,VWS V14.00,2013-02-12 17:00:00,
2013-02-12 12:01:00,30.6,25.2,30.04,West,269,1.0,11.0,80,0.00,,---,0.00,VWS V14.00,2013-02-12 17:01:00,
2013-02-12 12:02:00,30.7,25.3,30.04,West,272,1.0,11.0,80,0.00,,---,0.00,VWS V14.00,2013-02-12 17:02:00,
2013-02-12 12:04:00,30.7,25.3,30.04,West,268,10.0,11.0,80,0.00,,---,0.00,VWS V14.00,2013-02-12 17:04:00,
2013-02-12 12:06:00,30.7,25.3,30.04,WSW,257,8.0,12.0,80,0.00,,---,0.00,VWS V14.00,2013-02-12 17:06:00,
2013-02-12 12:07:00,30.7,25.3,30.04,West,276,8.0,13.0,80,0.00,,---,0.00,VWS V14.00,2013-02-12 17:07:00,
2013-02-12 12:08:00,30.6,25.2,30.04,NW,310,11.0,14.0,80,0.00,,---,0.00,VWS V14.00,2013-02-12 17:08:00,
2013-02-12 12:09:00,30.6,25.2,30.04,West,275,1.0,14.0,80,0.00,,---,0.00,VWS V14.00,2013-02-12 17:09:00,
2013-02-12 12:12:00,30.5,25.1,30.04,West,265,4.0,14.0,80,0.00,,---,0.00,VWS V14.00,2013-02-12 17:12:00,
2013-02-12 12:15:00,30.5,25.1,30.05,West,280,16.0,16.0,80,0.00,,---,0.00,VWS V14.00,2013-02-12 17:15:00,
2013-02-12 12:17:00,30.4,25.0,30.05,West,269,9.0,16.0,80,0.00,,---,0.00,VWS V14.00,2013-02-12 17:17:00,
2013-02-12 12:18:00,30.5,25.1,30.05,West,261,6.0,16.0,80,0.00,,---,0.00,VWS V14.00,2013-02-12 17:18:00,
2013-02-12 12:19:00,30.4,25.0,30.05,West,273,7.0,16.0,80,0.00,,---,0.00,VWS V14.00,2013-02-12 17:19:00,
2013-02-12 12:20:00,30.4,25.0,30.05,WNW,298,1.0,16.0,80,0.00,,---,0.00,VWS V14.00,2013-02-12 17:20:00,
2013-02-12 12:24:00,30.5,24.8,30.05,West,271,4.0,16.0,79,0.00,,---,0.00,VWS V14.00,2013-02-12 17:24:00,
2013-02-12 12:25:00,30.6,24.9,30.05,West,276,12.0,16.0,79,0.00,,---,0.00,VWS V14.00,2013-02-12 17:25:00,
2013-02-12 12:28:00,30.5,24.8,30.05,West,277,13.0,13.0,79,0.00,,---,0.00,VWS V14.00,2013-02-12 17:28:00,
2013-02-12 12:30:00,30.3,24.6,30.05,West,272,7.0,16.0,79,0.00,,---,0.00,VWS V14.00,2013-02-12 17:30:00,
2013-02-12 12:31:00,30.3,24.6,30.04,West,274,6.0,16.0,79,0.00,,---,0.00,VWS V14.00,2013-02-12 17:31:00,
2013-02-12 12:32:00,30.2,24.5,30.04,WNW,301,4.0,16.0,79,0.00,,---,0.00,VWS V14.00,2013-02-12 17:32:00,
2013-02-12 12:35:00,30.4,24.7,30.04,West,276,1.0,16.0,79,0.00,,---,0.00,VWS V14.00,2013-02-12 17:35:00,
2013-02-12 12:36:00,30.5,24.8,30.04,West,274,2.0,16.0,79,0.00,,---,0.00,VWS V14.00,2013-02-12 17:36:00,
2013-02-12 12:37:00,30.5,24.8,30.04,West,263,1.0,16.0,79,0.00,,---,0.00,VWS V14.00,2013-02-12 17:37:00,
2013-02-12 12:38:00,30.5,24.8,30.04,West,263,3.0,16.0,79,0.00,,---,0.00,VWS V14.00,2013-02-12 17:38:00,
2013-02-12 12:41:00,30.6,24.9,30.04,NW,312,7.0,16.0,79,0.00,,---,0.00,VWS V14.00,2013-02-12 17:41:00,
2013-02-12 12:42:00,30.6,24.9,30.03,WNW,303,11.0,16.0,79,0.00,,---,0.00,VWS V14.00,2013-02-12 17:42:00,
2013-02-12 12:43:00,30.7,25.0,30.03,WNW,294,1.0,16.0,79,0.00,,---,0.00,VWS V14.00,2013-02-12 17:43:00,
2013-02-12 12:44:00,30.7,25.0,30.03,West,280,14.0,16.0,79,0.00,,---,0.00,VWS V14.00,2013-02-12 17:44:00,
2013-02-12 12:47:00,30.7,25.0,30.03,WNW,295,4.0,16.0,79,0.00,,---,0.00,VWS V14.00,2013-02-12 17:47:00,
2013-02-12 12:49:00,30.7,25.0,30.03,West,269,6.0,16.0,79,0.00,,---,0.00,VWS V14.00,2013-02-12 17:49:00,
2013-02-12 12:50:00,30.7,25.0,30.03,West,269,9.0,16.0,79,0.00,,---,0.00,VWS V14.00,2013-02-12 17:50:00,
2013-02-12 12:52:00,30.6,24.9,30.03,WNW,303,6.0,16.0,79,0.00,,---,0.00,VWS V14.00,2013-02-12 17:52:00,
2013-02-12 12:56:00,30.7,25.0,30.02,West,273,10.0,16.0,79,0.00,,---,0.00,VWS V14.00,2013-02-12 17:56:00,
2013-02-12 12:57:00,30.7,25.0,30.02,WNW,285,7.0,16.0,79,0.00,,---,0.00,VWS V14.00,2013-02-12 17:57:00,
2013-02-12 13:00:00,30.6,24.9,30.02,West,271,3.0,16.0,79,0.00,,---,0.00,VWS V14.00,2013-02-12 18:00:00,
2013-02-12 13:02:00,30.5,24.8,30.02,NW,310,6.0,16.0,79,0.00,,---,0.00,VWS V14.00,2013-02-12 18:02:00,
2013-02-12 13:05:00,30.3,24.6,30.02,WNW,298,16.0,16.0,79,0.00,,---,0.00,VWS V14.00,2013-02-12 18:05:00,
2013-02-12 13:06:00,30.3,24.6,30.02,West,275,6.0,16.0,79,0.00,,---,0.00,VWS V14.00,2013-02-12 18:06:00,
2013-02-12 13:07:00,30.3,24.6,30.02,West,273,1.0,16.0,79,0.00,,---,0.00,VWS V14.00,2013-02-12 18:07:00,
2013-02-12 13:09:00,30.3,24.6,30.02,WNW,300,5.0,16.0,79,0.00,,---,0.00,VWS V14.00,2013-02-12 18:09:00,
2013-02-12 13:10:00,30.3,24.6,30.01,NW,326,5.0,16.0,79,0.00,,---,0.00,VWS V14.00,2013-02-12 18:10:00,
2013-02-12 13:13:00,30.3,24.6,30.01,West,260,0.0,16.0,79,0.00,,---,0.00,VWS V14.00,2013-02-12 18:13:00,
2013-02-12 13:14:00,30.3,24.6,30.01,WNW,284,1.0,16.0,79,0.00,,---,0.00,VWS V14.00,2013-02-12 18:14:00,
2013-02-12 13:18:00,30.2,24.2,30.00,NW,313,7.0,16.0,78,0.00,,---,0.00,VWS V14.00,2013-02-12 18:18:00,
2013-02-12 13:21:00,30.1,24.4,29.99,WNW,301,7.0,16.0,79,0.00,,---,0.00,VWS V14.00,2013-02-12 18:21:00,
2013-02-12 13:22:00,30.1,24.4,29.99,WNW,295,3.0,16.0,79,0.00,,---,0.00,VWS V14.00,2013-02-12 18:22:00,
2013-02-12 13:27:00,30.2,24.2,29.99,NNW,338,6.0,16.0,78,0.00,,---,0.00,VWS V14.00,2013-02-12 18:27:00,
2013-02-12 13:28:00,30.2,24.2,29.99,NNW,338,6.0,16.0,78,0.00,,---,0.00,VWS V14.00,2013-02-12 18:28:00,
2013-02-12 13:33:00,30.2,24.2,29.99,WNW,296,5.0,11.0,78,0.00,,---,0.00,VWS V14.00,2013-02-12 18:33:00,
2013-02-12 13:34:00,30.1,24.1,29.99,WNW,303,4.0,11.0,78,0.00,,---,0.00,VWS V14.00,2013-02-12 18:34:00,
2013-02-12 13:35:00,30.2,24.2,29.99,WNW,290,0.0,11.0,78,0.00,,---,0.00,VWS V14.00,2013-02-12 18:35:00,
2013-02-12 13:38:00,30.3,24.3,29.98,WNW,283,2.0,11.0,78,0.00,,---,0.00,VWS V14.00,2013-02-12 18:38:00,
2013-02-12 13:39:00,30.3,24.3,29.98,NNW,336,5.0,11.0,78,0.00,,---,0.00,VWS V14.00,2013-02-12 18:39:00,
2013-02-12 13:41:00,30.4,24.4,29.98,NNW,335,3.0,11.0,78,0.00,,---,0.00,VWS V14.00,2013-02-12 18:41:00,
2013-02-12 13:42:00,30.4,24.4,29.98,NNW,330,4.0,11.0,78,0.00,,---,0.00,VWS V14.00,2013-02-12 18:42:00,
2013-02-12 13:43:00,30.4,24.4,29.98,North,355,9.0,14.0,78,0.00,,---,0.00,VWS V14.00,2013-02-12 18:43:00,
2013-02-12 13:45:00,30.3,24.0,29.98,NW,310,6.0,14.0,77,0.00,,---,0.00,VWS V14.00,2013-02-12 18:45:00,
2013-02-12 13:47:00,30.2,24.2,29.98,WNW,294,4.0,14.0,78,0.00,,---,0.00,VWS V14.00,2013-02-12 18:47:00,
2013-02-12 13:50:00,30.2,24.2,29.98,WNW,286,7.0,14.0,78,0.00,,---,0.00,VWS V14.00,2013-02-12 18:50:00,
2013-02-12 13:51:00,30.3,24.3,29.97,WNW,288,6.0,14.0,78,0.00,,---,0.00,VWS V14.00,2013-02-12 18:51:00,
2013-02-12 13:53:00,30.3,24.3,29.97,WNW,291,2.0,14.0,78,0.00,,---,0.00,VWS V14.00,2013-02-12 18:53:00,
2013-02-12 13:57:00,30.7,24.7,29.97,WNW,284,2.0,14.0,78,0.00,,---,0.00,VWS V14.00,2013-02-12 18:57:00,
2013-02-12 13:58:00,30.8,24.8,29.97,WNW,291,3.0,14.0,78,0.00,,---,0.00,VWS V14.00,2013-02-12 18:58:00,
2013-02-12 13:59:00,30.8,24.8,29.98,WNW,291,3.0,4.0,78,0.00,,---,0.00,VWS V14.00,2013-02-12 18:59:00,
2013-02-12 14:00:00,30.8,24.5,29.97,WNW,291,1.0,8.0,77,0.00,,---,0.00,VWS V14.00,2013-02-12 19:00:00,
2013-02-12 14:02:00,30.8,24.5,29.97,West,267,2.0,8.0,77,0.00,,---,0.00,VWS V14.00,2013-02-12 19:02:00,
2013-02-12 14:04:00,30.9,24.5,29.97,WNW,298,10.0,17.0,77,0.00,,---,0.00,VWS V14.00,2013-02-12 19:04:00,
2013-02-12 14:05:00,30.9,24.5,29.97,West,260,2.0,17.0,77,0.00,,---,0.00,VWS V14.00,2013-02-12 19:05:00,
2013-02-12 14:06:00,30.8,24.5,29.97,WNW,286,10.0,17.0,77,0.00,,---,0.00,VWS V14.00,2013-02-12 19:06:00,
2013-02-12 14:09:00,30.8,24.1,29.97,WNW,284,7.0,17.0,76,0.00,,---,0.00,VWS V14.00,2013-02-12 19:09:00,
2013-02-12 14:11:00,30.8,24.1,29.97,WNW,283,9.0,17.0,76,0.00,,---,0.00,VWS V14.00,2013-02-12 19:11:00,
2013-02-12 14:12:00,30.7,24.0,29.97,West,280,3.0,17.0,76,0.00,,---,0.00,VWS V14.00,2013-02-12 19:12:00,
2013-02-12 14:14:00,30.7,24.0,29.97,West,262,3.0,17.0,76,0.00,,---,0.00,VWS V14.00,2013-02-12 19:14:00,
2013-02-12 14:15:00,30.6,24.0,29.97,WNW,286,10.0,17.0,76,0.00,,---,0.00,VWS V14.00,2013-02-12 19:15:00,
2013-02-12 14:17:00,30.6,24.0,29.97,West,259,5.0,17.0,76,0.00,,---,0.00,VWS V14.00,2013-02-12 19:17:00,
2013-02-12 14:18:00,30.6,24.0,29.97,WNW,284,1.0,17.0,76,0.00,,---,0.00,VWS V14.00,2013-02-12 19:18:00,
2013-02-12 14:19:00,30.6,24.0,29.97,NW,304,11.0,17.0,76,0.00,,---,0.00,VWS V14.00,2013-02-12 19:19:00,
2013-02-12 14:20:00,30.5,23.9,29.97,NW,313,9.0,17.0,76,0.00,,---,0.00,VWS V14.00,2013-02-12 19:20:00,
2013-02-12 14:24:00,30.6,24.0,29.97,West,279,0.0,17.0,76,0.00,,---,0.00,VWS V14.00,2013-02-12 19:24:00,
2013-02-12 14:25:00,30.6,24.0,29.97,WNW,288,3.0,17.0,76,0.00,,---,0.00,VWS V14.00,2013-02-12 19:25:00,
2013-02-12 14:26:00,30.6,24.0,29.97,WNW,300,1.0,17.0,76,0.00,,---,0.00,VWS V14.00,2013-02-12 19:26:00,
2013-02-12 14:27:00,30.6,24.0,29.97,NW,304,2.0,17.0,76,0.00,,---,0.00,VWS V14.00,2013-02-12 19:27:00,
2013-02-12 14:30:00,30.5,23.9,29.97,NW,310,3.0,12.0,76,0.00,,---,0.00,VWS V14.00,2013-02-12 19:30:00,
2013-02-12 14:32:00,30.5,23.9,29.98,West,261,1.0,12.0,76,0.00,,---,0.00,VWS V14.00,2013-02-12 19:32:00,
2013-02-12 14:35:00,30.5,23.9,29.97,WNW,286,1.0,14.0,76,0.00,,---,0.00,VWS V14.00,2013-02-12 19:35:00,
2013-02-12 14:37:00,30.5,24.2,29.97,WNW,303,11.0,15.0,77,0.00,,---,0.00,VWS V14.00,2013-02-12 19:37:00,
2013-02-12 14:38:00,30.5,23.9,29.97,West,275,1.0,15.0,76,0.00,,---,0.00,VWS V14.00,2013-02-12 19:38:00,
2013-02-12 14:40:00,30.5,24.2,29.97,NNW,336,6.0,15.0,77,0.00,,---,0.00,VWS V14.00,2013-02-12 19:40:00,
2013-02-12 14:42:00,30.5,23.9,29.97,NW,310,4.0,15.0,76,0.00,,---,0.00,VWS V14.00,2013-02-12 19:42:00,
2013-02-12 14:43:00,30.6,24.3,29.97,NW,315,1.0,15.0,77,0.00,,---,0.00,VWS V14.00,2013-02-12 19:43:00,
2013-02-12 14:45:00,30.5,23.9,29.97,NNW,328,13.0,15.0,76,0.00,,---,0.00,VWS V14.00,2013-02-12 19:45:00,
2013-02-12 14:46:00,30.5,23.9,29.97,NW,304,5.0,15.0,76,0.00,,---,0.00,VWS V14.00,2013-02-12 19:46:00,
2013-02-12 14:47:00,30.4,23.8,29.97,NW,307,9.0,15.0,76,0.00,,---,0.00,VWS V14.00,2013-02-12 19:47:00,
2013-02-12 14:48:00,30.4,23.8,29.97,NW,309,7.0,15.0,76,0.00,,---,0.00,VWS V14.00,2013-02-12 19:48:00,
2013-02-12 14:51:00,30.4,24.1,29.97,West,274,1.0,15.0,77,0.00,,---,0.00,VWS V14.00,2013-02-12 19:51:00,
2013-02-12 14:53:00,30.5,24.2,29.97,West,277,7.0,15.0,77,0.00,,---,0.00,VWS V14.00,2013-02-12 19:53:00,
2013-02-12 14:55:00,30.5,24.2,29.97,West,277,1.0,15.0,77,0.00,,---,0.00,VWS V14.00,2013-02-12 19:55:00,
2013-02-12 14:57:00,30.5,24.2,29.97,NW,304,10.0,15.0,77,0.00,,---,0.00,VWS V14.00,2013-02-12 19:57:00,
2013-02-12 14:58:00,30.5,24.2,29.97,WSW,257,0.0,15.0,77,0.00,,---,0.00,VWS V14.00,2013-02-12 19:58:00,
2013-02-12 15:00:00,30.6,24.3,29.96,NW,317,3.0,10.0,77,0.00,,---,0.00,VWS V14.00,2013-02-12 20:00:00,
2013-02-12 15:03:00,30.6,24.3,29.96,West,261,1.0,10.0,77,0.00,,---,0.00,VWS V14.00,2013-02-12 20:03:00,
2013-02-12 15:04:00,30.6,24.3,29.96,West,263,3.0,10.0,77,0.00,,---,0.00,VWS V14.00,2013-02-12 20:04:00,
2013-02-12 15:06:00,30.6,24.3,29.97,West,277,7.0,13.0,77,0.00,,---,0.00,VWS V14.00,2013-02-12 20:06:00,
2013-02-12 15:07:00,30.6,24.3,29.97,NNW,339,9.0,13.0,77,0.00,,---,0.00,VWS V14.00,2013-02-12 20:07:00,
2013-02-12 15:09:00,30.5,24.2,29.97,West,275,7.0,13.0,77,0.00,,---,0.00,VWS V14.00,2013-02-12 20:09:00,
2013-02-12 15:10:00,30.6,24.3,29.97,West,269,2.0,13.0,77,0.00,,---,0.00,VWS V14.00,2013-02-12 20:10:00,
2013-02-12 15:11:00,30.6,24.3,29.97,West,271,2.0,13.0,77,0.00,,---,0.00,VWS V14.00,2013-02-12 20:11:00,
2013-02-12 15:12:00,30.6,24.3,29.97,West,277,0.0,13.0,77,0.00,,---,0.00,VWS V14.00,2013-02-12 20:12:00,
2013-02-12 15:15:00,30.6,24.3,29.97,WNW,298,6.0,13.0,77,0.00,,---,0.00,VWS V14.00,2013-02-12 20:15:00,
2013-02-12 15:16:00,30.6,24.3,29.97,West,276,7.0,13.0,77,0.00,,---,0.00,VWS V14.00,2013-02-12 20:16:00,
2013-02-12 15:18:00,30.6,24.3,29.97,West,273,2.0,16.0,77,0.00,,---,0.00,VWS V14.00,2013-02-12 20:18:00,
2013-02-12 15:21:00,30.6,24.3,29.97,NW,323,10.0,16.0,77,0.00,,---,0.00,VWS V14.00,2013-02-12 20:21:00,
2013-02-12 15:23:00,30.5,24.2,29.97,WNW,285,3.0,16.0,77,0.00,,---,0.00,VWS V14.00,2013-02-12 20:23:00,
2013-02-12 15:26:00,30.5,24.2,29.97,West,272,4.0,16.0,77,0.00,,---,0.00,VWS V14.00,2013-02-12 20:26:00,
2013-02-12 15:28:00,30.5,24.2,29.97,West,271,13.0,16.0,77,0.00,,---,0.00,VWS V14.00,2013-02-12 20:28:00,
2013-02-12 15:29:00,30.5,24.2,29.98,WNW,290,9.0,14.0,77,0.00,,---,0.00,VWS V14.00,2013-02-12 20:29:00,
2013-02-12 15:31:00,30.5,24.2,29.98,West,271,3.0,14.0,77,0.00,,---,0.00,VWS V14.00,2013-02-12 20:31:00,
2013-02-12 15:32:00,30.5,24.5,29.98,West,265,4.0,14.0,78,0.00,,---,0.00,VWS V14.00,2013-02-12 20:32:00,
2013-02-12 15:34:00,30.5,24.5,29.98,West,281,6.0,14.0,78,0.00,,---,0.00,VWS V14.00,2013-02-12 20:34:00,
2013-02-12 15:36:00,30.5,24.2,29.98,West,272,2.0,14.0,77,0.00,,---,0.00,VWS V14.00,2013-02-12 20:36:00,
2013-02-12 15:37:00,30.5,24.5,29.98,West,269,5.0,14.0,78,0.00,,---,0.00,VWS V14.00,2013-02-12 20:37:00,
2013-02-12 15:41:00,30.5,24.5,29.98,West,273,0.0,14.0,78,0.00,,---,0.00,VWS V14.00,2013-02-12 20:41:00,
2013-02-12 15:42:00,30.5,24.5,29.98,West,271,2.0,14.0,78,0.00,,---,0.00,VWS V14.00,2013-02-12 20:42:00,
2013-02-12 15:44:00,30.5,24.5,29.98,West,269,2.0,14.0,78,0.00,,---,0.00,VWS V14.00,2013-02-12 20:44:00,
2013-02-12 15:47:00,30.5,24.5,29.98,West,269,10.0,14.0,78,0.00,,---,0.00,VWS V14.00,2013-02-12 20:47:00,
2013-02-12 15:48:00,30.4,24.4,29.98,West,273,3.0,14.0,78,0.00,,---,0.00,VWS V14.00,2013-02-12 20:48:00,
2013-02-12 15:49:00,30.4,24.4,29.98,West,263,7.0,14.0,78,0.00,,---,0.00,VWS V14.00,2013-02-12 20:49:00,
2013-02-12 15:52:00,30.3,24.3,29.98,NW,306,3.0,14.0,78,0.00,,---,0.00,VWS V14.00,2013-02-12 20:52:00,
2013-02-12 15:55:00,30.3,24.3,29.98,West,269,4.0,15.0,78,0.00,,---,0.00,VWS V14.00,2013-02-12 20:55:00,
2013-02-12 15:57:00,30.3,24.3,29.98,WNW,290,4.0,15.0,78,0.00,,---,0.00,VWS V14.00,2013-02-12 20:57:00,
2013-02-12 16:01:00,30.4,24.7,29.99,NW,309,2.0,12.0,79,0.00,,---,0.00,VWS V14.00,2013-02-12 21:01:00,
2013-02-12 16:02:00,30.4,24.7,29.98,WNW,296,11.0,12.0,79,0.00,,---,0.00,VWS V14.00,2013-02-12 21:02:00,
2013-02-12 16:03:00,30.4,24.7,29.98,WNW,296,7.0,12.0,79,0.00,,---,0.00,VWS V14.00,2013-02-12 21:03:00,
2013-02-12 16:05:00,30.4,24.7,29.98,WNW,288,6.0,12.0,79,0.00,,---,0.00,VWS V14.00,2013-02-12 21:05:00,
2013-02-12 16:06:00,30.5,24.8,29.98,WNW,294,3.0,12.0,79,0.00,,---,0.00,VWS V14.00,2013-02-12 21:06:00,
2013-02-12 16:09:00,30.4,24.7,29.98,West,280,2.0,14.0,79,0.00,,---,0.00,VWS V14.00,2013-02-12 21:09:00,
2013-02-12 16:10:00,30.4,24.7,29.98,WNW,296,6.0,14.0,79,0.00,,---,0.00,VWS V14.00,2013-02-12 21:10:00,
2013-02-12 16:12:00,30.4,24.7,29.98,WNW,285,5.0,14.0,79,0.00,,---,0.00,VWS V14.00,2013-02-12 21:12:00,
2013-02-12 16:14:00,30.4,24.7,29.98,West,263,10.0,14.0,79,0.00,,---,0.00,VWS V14.00,2013-02-12 21:14:00,
2013-02-12 16:15:00,30.4,24.7,29.98,WNW,282,4.0,14.0,79,0.00,,---,0.00,VWS V14.00,2013-02-12 21:15:00,
2013-02-12 16:18:00,30.4,24.7,29.97,West,272,6.0,16.0,79,0.00,,---,0.00,VWS V14.00,2013-02-12 21:18:00,
2013-02-12 16:19:00,30.3,24.6,29.98,West,271,3.0,16.0,79,0.00,,---,0.00,VWS V14.00,2013-02-12 21:19:00,
2013-02-12 16:20:00,30.3,24.6,29.98,West,269,4.0,16.0,79,0.00,,---,0.00,VWS V14.00,2013-02-12 21:20:00,
2013-02-12 16:23:00,30.3,24.6,29.98,West,273,12.0,16.0,79,0.00,,---,0.00,VWS V14.00,2013-02-12 21:23:00,
2013-02-12 16:24:00,30.2,24.5,29.98,West,273,11.0,16.0,79,0.00,,---,0.00,VWS V14.00,2013-02-12 21:24:00,
2013-02-12 16:25:00,30.2,24.5,29.98,WNW,284,7.0,16.0,79,0.00,,---,0.00,VWS V14.00,2013-02-12 21:25:00,
2013-02-12 16:27:00,30.1,24.4,29.97,West,265,12.0,16.0,79,0.00,,---,0.00,VWS V14.00,2013-02-12 21:27:00,
2013-02-12 16:29:00,30.0,24.3,29.98,West,264,6.0,6.0,79,0.00,,---,0.00,VWS V14.00,2013-02-12 21:29:00,
2013-02-12 16:30:00,29.9,24.2,29.98,West,269,7.0,7.0,79,0.00,,---,0.00,VWS V14.00,2013-02-12 21:30:00,
2013-02-12 16:31:00,29.9,24.2,29.98,West,280,5.0,7.0,79,0.00,,---,0.00,VWS V14.00,2013-02-12 21:31:00,
2013-02-12 16:32:00,29.9,24.2,29.98,West,278,2.0,7.0,79,0.00,,---,0.00,VWS V14.00,2013-02-12 21:32:00,
2013-02-12 16:34:00,29.9,24.2,29.99,WNW,282,1.0,7.0,79,0.00,,---,0.00,VWS V14.00,2013-02-12 21:34:00,
2013-02-12 16:36:00,29.8,24.1,29.99,West,268,4.0,10.0,79,0.00,,---,0.00,VWS V14.00,2013-02-12 21:36:00,
2013-02-12 16:37:00,29.9,24.2,29.99,WNW,284,12.0,16.0,79,0.00,,---,0.00,VWS V14.00,2013-02-12 21:37:00,
2013-02-12 16:38:00,29.9,24.5,29.99,WNW,287,4.0,16.0,80,0.00,,---,0.00,VWS V14.00,2013-02-12 21:38:00,
2013-02-12 16:40:00,29.8,24.1,29.99,WNW,303,4.0,16.0,79,0.00,,---,0.00,VWS V14.00,2013-02-12 21:40:00,
2013-02-12 16:42:00,29.7,24.0,29.98,WNW,292,9.0,16.0,79,0.00,,---,0.00,VWS V14.00,2013-02-12 21:42:00,
2013-02-12 16:43:00,29.7,24.3,29.98,West,279,3.0,16.0,80,0.00,,---,0.00,VWS V14.00,2013-02-12 21:43:00,
2013-02-12 16:44:00,29.7,24.0,29.98,NW,305,4.0,16.0,79,0.00,,---,0.00,VWS V14.00,2013-02-12 21:44:00,
2013-02-12 16:45:00,29.7,24.3,29.98,West,277,3.0,16.0,80,0.00,,---,0.00,VWS V14.00,2013-02-12 21:45:00,
2013-02-12 16:48:00,29.6,24.2,29.98,West,277,14.0,16.0,80,0.00,,---,0.00,VWS V14.00,2013-02-12 21:48:00,
2013-02-12 16:50:00,29.6,24.2,29.99,NW,304,2.0,16.0,80,0.00,,---,0.00,VWS V14.00,2013-02-12 21:50:00,
2013-02-12 16:51:00,29.6,24.2,29.99,West,274,4.0,16.0,80,0.00,,---,0.00,VWS V14.00,2013-02-12 21:51:00,
2013-02-12 16:53:00,29.6,24.2,29.98,West,267,2.0,16.0,80,0.00,,---,0.00,VWS V14.00,2013-02-12 21:53:00,
2013-02-12 16:56:00,29.6,24.2,29.98,West,277,9.0,16.0,80,0.00,,---,0.00,VWS V14.00,2013-02-12 21:56:00,
2013-02-12 16:58:00,29.5,24.1,29.98,WNW,286,3.0,16.0,80,0.00,,---,0.00,VWS V14.00,2013-02-12 21:58:00,
2013-02-12 17:00:00,29.6,24.2,29.98,NW,308,9.0,9.0,80,0.00,,---,0.00,VWS V14.00,2013-02-12 22:00:00,
2013-02-12 17:01:00,29.5,24.1,29.98,NW,316,3.0,13.0,80,0.00,,---,0.00,VWS V14.00,2013-02-12 22:01:00,
2013-02-12 17:03:00,29.5,24.1,29.98,NW,313,11.0,13.0,80,0.00,,---,0.00,VWS V14.00,2013-02-12 22:03:00,
2013-02-12 17:04:00,29.5,24.1,29.98,NW,308,14.0,14.0,80,0.00,,---,0.00,VWS V14.00,2013-02-12 22:04:00,
2013-02-12 17:05:00,29.4,24.0,29.98,NW,317,12.0,18.0,80,0.00,,---,0.00,VWS V14.00,2013-02-12 22:05:00,
2013-02-12 17:06:00,29.3,23.9,29.98,West,273,9.0,18.0,80,0.00,,---,0.00,VWS V14.00,2013-02-12 22:06:00,
2013-02-12 17:08:00,29.3,23.9,29.98,West,269,6.0,18.0,80,0.00,,---,0.00,VWS V14.00,2013-02-12 22:08:00,
2013-02-12 17:10:00,29.3,23.9,29.98,West,265,6.0,18.0,80,0.00,,---,0.00,VWS V14.00,2013-02-12 22:10:00,
2013-02-12 17:12:00,29.2,23.8,29.98,WNW,303,5.0,18.0,80,0.00,,---,0.00,VWS V14.00,2013-02-12 22:12:00,
2013-02-12 17:13:00,29.2,23.8,29.98,WNW,296,6.0,18.0,80,0.00,,---,0.00,VWS V14.00,2013-02-12 22:13:00,
2013-02-12 17:15:00,29.1,23.7,29.98,West,265,5.0,18.0,80,0.00,,---,0.00,VWS V14.00,2013-02-12 22:15:00,
2013-02-12 17:16:00,29.1,23.7,29.98,West,265,6.0,18.0,80,0.00,,---,0.00,VWS V14.00,2013-02-12 22:16:00,
2013-02-12 17:19:00,29.1,23.7,29.99,WNW,288,5.0,18.0,80,0.00,,---,0.00,VWS V14.00,2013-02-12 22:19:00,
2013-02-12 17:20:00,29.0,23.6,29.98,West,270,7.0,18.0,80,0.00,,---,0.00,VWS V14.00,2013-02-12 22:20:00,
2013-02-12 17:22:00,28.9,23.5,29.98,West,273,4.0,18.0,80,0.00,,---,0.00,VWS V14.00,2013-02-12 22:22:00,
2013-02-12 17:23:00,28.9,23.2,29.98,West,270,3.0,18.0,79,0.00,,---,0.00,VWS V14.00,2013-02-12 22:23:00,
2013-02-12 17:24:00,28.9,23.5,29.98,West,277,3.0,18.0,80,0.00,,---,0.00,VWS V14.00,2013-02-12 22:24:00,
2013-02-12 17:25:00,28.9,23.2,29.98,West,275,5.0,18.0,79,0.00,,---,0.00,VWS V14.00,2013-02-12 22:25:00,
2013-02-12 17:27:00,28.8,23.1,29.98,West,269,2.0,18.0,79,0.00,,---,0.00,VWS V14.00,2013-02-12 22:27:00,
2013-02-12 17:28:00,28.8,23.1,29.98,West,270,0.0,18.0,79,0.00,,---,0.00,VWS V14.00,2013-02-12 22:28:00,
2013-02-12 17:30:00,28.8,23.4,29.98,WNW,291,5.0,10.0,80,0.00,,---,0.00,VWS V14.00,2013-02-12 22:30:00,
2013-02-12 17:31:00,28.8,23.4,29.98,West,279,4.0,13.0,80,0.00,,---,0.00,VWS V14.00,2013-02-12 22:31:00,
2013-02-12 17:33:00,28.8,23.4,29.98,West,281,2.0,13.0,80,0.00,,---,0.00,VWS V14.00,2013-02-12 22:33:00,
2013-02-12 17:34:00,28.8,23.4,29.98,West,279,2.0,13.0,80,0.00,,---,0.00,VWS V14.00,2013-02-12 22:34:00,
2013-02-12 17:36:00,28.9,23.5,29.98,WSW,254,4.0,13.0,80,0.00,,---,0.00,VWS V14.00,2013-02-12 22:36:00,
2013-02-12 17:37:00,28.9,23.5,29.98,West,259,4.0,13.0,80,0.00,,---,0.00,VWS V14.00,2013-02-12 22:37:00,
2013-02-12 17:39:00,28.9,23.5,29.98,West,277,6.0,13.0,80,0.00,,---,0.00,VWS V14.00,2013-02-12 22:39:00,
2013-02-12 17:41:00,28.9,23.5,29.97,WNW,283,5.0,13.0,80,0.00,,---,0.00,VWS V14.00,2013-02-12 22:41:00,
2013-02-12 17:43:00,28.9,23.5,29.97,WNW,292,5.0,13.0,80,0.00,,---,0.00,VWS V14.00,2013-02-12 22:43:00,
2013-02-12 17:44:00,28.9,23.5,29.97,WSW,257,5.0,13.0,80,0.00,,---,0.00,VWS V14.00,2013-02-12 22:44:00,
2013-02-12 17:45:00,28.9,23.5,29.97,WSW,249,6.0,13.0,80,0.00,,---,0.00,VWS V14.00,2013-02-12 22:45:00,
2013-02-12 17:47:00,28.9,23.5,29.97,West,265,6.0,13.0,80,0.00,,---,0.00,VWS V14.00,2013-02-12 22:47:00,
2013-02-12 17:48:00,28.9,23.5,29.97,West,279,5.0,13.0,80,0.00,,---,0.00,VWS V14.00,2013-02-12 22:48:00,
2013-02-12 17:50:00,28.9,23.5,29.97,West,271,6.0,13.0,80,0.00,,---,0.00,VWS V14.00,2013-02-12 22:50:00,
2013-02-12 17:53:00,28.8,23.4,29.98,WNW,301,7.0,13.0,80,0.00,,---,0.00,VWS V14.00,2013-02-12 22:53:00,
2013-02-12 17:55:00,28.9,23.5,29.98,WNW,284,5.0,13.0,80,0.00,,---,0.00,VWS V14.00,2013-02-12 22:55:00,
2013-02-12 17:57:00,28.9,23.5,29.98,West,260,6.0,13.0,80,0.00,,---,0.00,VWS V14.00,2013-02-12 22:57:00,
2013-02-12 17:58:00,28.9,23.5,29.98,West,271,7.0,13.0,80,0.00,,---,0.00,VWS V14.00,2013-02-12 22:58:00,
2013-02-12 18:02:00,28.9,23.5,29.98,West,273,5.0,11.0,80,0.00,,---,0.00,VWS V14.00,2013-02-12 23:02:00,
2013-02-12 18:04:00,28.9,23.8,29.99,West,273,4.0,11.0,81,0.00,,---,0.00,VWS V14.00,2013-02-12 23:04:00,
2013-02-12 18:07:00,28.9,23.8,29.99,West,269,6.0,11.0,81,0.00,,---,0.00,VWS V14.00,2013-02-12 23:07:00,
2013-02-12 18:09:00,28.9,23.8,29.98,West,267,2.0,11.0,81,0.00,,---,0.00,VWS V14.00,2013-02-12 23:09:00,
2013-02-12 18:11:00,28.9,23.8,29.98,West,272,8.0,11.0,81,0.00,,---,0.00,VWS V14.00,2013-02-12 23:11:00,
2013-02-12 18:12:00,28.9,23.8,29.98,West,261,4.0,11.0,81,0.00,,---,0.00,VWS V14.00,2013-02-12 23:12:00,
2013-02-12 18:15:00,28.9,23.8,29.98,West,260,1.0,11.0,81,0.00,,---,0.00,VWS V14.00,2013-02-12 23:15:00,
2013-02-12 18:16:00,28.9,23.5,29.98,West,264,1.0,11.0,80,0.00,,---,0.00,VWS V14.00,2013-02-12 23:16:00,
2013-02-12 18:20:00,29.0,23.9,29.98,WNW,296,1.0,11.0,81,0.00,,---,0.00,VWS V14.00,2013-02-12 23:20:00,
2013-02-12 18:21:00,29.0,23.9,29.97,West,272,1.0,11.0,81,0.00,,---,0.00,VWS V14.00,2013-02-12 23:21:00,
2013-02-12 18:23:00,29.0,23.9,29.97,West,267,2.0,11.0,81,0.00,,---,0.00,VWS V14.00,2013-02-12 23:23:00,
2013-02-12 18:25:00,29.0,23.9,29.97,West,260,2.0,11.0,81,0.00,,---,0.00,VWS V14.00,2013-02-12 23:25:00,
2013-02-12 18:26:00,29.0,23.9,29.97,West,260,1.0,11.0,81,0.00,,---,0.00,VWS V14.00,2013-02-12 23:26:00,
2013-02-12 18:28:00,29.0,23.9,29.97,West,261,0.0,11.0,81,0.00,,---,0.00,VWS V14.00,2013-02-12 23:28:00,
2013-02-12 18:31:00,29.1,24.0,29.97,West,260,4.0,4.0,81,0.00,,---,0.00,VWS V14.00,2013-02-12 23:31:00,
2013-02-12 18:32:00,29.1,24.0,29.97,West,261,3.0,4.0,81,0.00,,---,0.00,VWS V14.00,2013-02-12 23:32:00,
2013-02-12 18:33:00,29.1,24.0,29.98,West,268,2.0,7.0,81,0.00,,---,0.00,VWS V14.00,2013-02-12 23:33:00,
2013-02-12 18:37:00,29.1,24.0,29.97,West,267,4.0,10.0,81,0.00,,---,0.00,VWS V14.00,2013-02-12 23:37:00,
2013-02-12 18:38:00,29.1,24.0,29.97,West,268,4.0,10.0,81,0.00,,---,0.00,VWS V14.00,2013-02-12 23:38:00,
2013-02-12 18:42:00,29.1,24.0,29.97,WNW,286,2.0,10.0,81,0.00,,---,0.00,VWS V14.00,2013-02-12 23:42:00,
2013-02-12 18:43:00,29.1,24.0,29.97,WNW,286,3.0,10.0,81,0.00,,---,0.00,VWS V14.00,2013-02-12 23:43:00,
2013-02-12 18:44:00,29.2,24.1,29.97,WNW,284,3.0,10.0,81,0.00,,---,0.00,VWS V14.00,2013-02-12 23:44:00,
2013-02-12 18:47:00,29.2,24.1,29.97,WNW,286,2.0,10.0,81,0.00,,---,0.00,VWS V14.00,2013-02-12 23:47:00,
2013-02-12 18:48:00,29.2,24.1,29.97,WNW,292,4.0,10.0,81,0.00,,---,0.00,VWS V14.00,2013-02-12 23:48:00,
2013-02-12 18:49:00,29.2,24.1,29.97,West,269,6.0,10.0,81,0.00,,---,0.00,VWS V14.00,2013-02-12 23:49:00,
2013-02-12 18:50:00,29.2,24.1,29.97,West,269,6.0,10.0,81,0.00,,---,0.00,VWS V14.00,2013-02-12 23:50:00,
2013-02-12 18:53:00,29.2,24.1,29.97,West,277,7.0,12.0,81,0.00,,---,0.00,VWS V14.00,2013-02-12 23:53:00,
2013-02-12 18:54:00,29.2,24.1,29.97,West,275,6.0,13.0,81,0.00,,---,0.00,VWS V14.00,2013-02-12 23:54:00,
2013-02-12 18:55:00,29.2,24.1,29.97,West,269,5.0,13.0,81,0.00,,---,0.00,VWS V14.00,2013-02-12 23:55:00,
2013-02-12 18:59:00,29.2,24.1,29.98,West,261,4.0,6.0,81,0.00,,---,0.00,VWS V14.00,2013-02-12 23:59:00,
2013-02-12 19:00:00,29.2,24.1,29.97,West,265,4.0,9.0,81,0.00,,---,0.00,VWS V14.00,2013-02-13 00:00:00,
2013-02-12 19:03:00,29.2,24.1,29.97,West,277,2.0,9.0,81,0.00,,---,0.00,VWS V14.00,2013-02-13 00:03:00,
2013-02-12 19:04:00,29.2,24.1,29.97,West,278,2.0,9.0,81,0.00,,---,0.00,VWS V14.00,2013-02-13 00:04:00,
2013-02-12 19:05:00,29.2,24.1,29.97,West,277,4.0,9.0,81,0.00,,---,0.00,VWS V14.00,2013-02-13 00:05:00,
2013-02-12 19:06:00,29.2,24.1,29.97,West,273,5.0,9.0,81,0.00,,---,0.00,VWS V14.00,2013-02-13 00:06:00,
2013-02-12 19:09:00,29.2,24.1,29.97,West,265,2.0,9.0,81,0.00,,---,0.00,VWS V14.00,2013-02-13 00:09:00,
2013-02-12 19:11:00,29.2,24.1,29.97,West,266,2.0,9.0,81,0.00,,---,0.00,VWS V14.00,2013-02-13 00:11:00,
2013-02-12 19:13:00,29.2,24.1,29.97,West,266,2.0,9.0,81,0.00,,---,0.00,VWS V14.00,2013-02-13 00:13:00,
2013-02-12 19:14:00,29.3,24.2,29.97,West,267,4.0,9.0,81,0.00,,---,0.00,VWS V14.00,2013-02-13 00:14:00,
2013-02-12 19:15:00,29.2,24.1,29.97,West,269,4.0,9.0,81,0.00,,---,0.00,VWS V14.00,2013-02-13 00:15:00,
2013-02-12 19:16:00,29.3,24.2,29.97,NW,310,10.0,10.0,81,0.00,,---,0.00,VWS V14.00,2013-02-13 00:16:00,
2013-02-12 19:19:00,29.3,24.2,29.98,WNW,295,4.0,11.0,81,0.00,,---,0.00,VWS V14.00,2013-02-13 00:19:00,
2013-02-12 19:21:00,29.3,24.2,29.97,WNW,284,4.0,11.0,81,0.00,,---,0.00,VWS V14.00,2013-02-13 00:21:00,
2013-02-12 19:23:00,29.3,24.2,29.98,WNW,284,3.0,11.0,81,0.00,,---,0.00,VWS V14.00,2013-02-13 00:23:00,
2013-02-12 19:26:00,29.4,24.3,29.97,WNW,287,3.0,11.0,81,0.00,,---,0.00,VWS V14.00,2013-02-13 00:26:00,
2013-02-12 19:27:00,29.4,24.3,29.97,West,279,4.0,11.0,81,0.00,,---,0.00,VWS V14.00,2013-02-13 00:27:00,
2013-02-12 19:30:00,29.4,24.3,29.97,NW,315,7.0,9.0,81,0.00,,---,0.00,VWS V14.00,2013-02-13 00:30:00,
2013-02-12 19:32:00,29.4,24.3,29.97,NW,304,1.0,9.0,81,0.00,,---,0.00,VWS V14.00,2013-02-13 00:32:00,
2013-02-12 19:33:00,29.3,24.2,29.97,West,277,6.0,9.0,81,0.00,,---,0.00,VWS V14.00,2013-02-13 00:33:00,
2013-02-12 19:35:00,29.3,24.2,29.97,West,268,4.0,9.0,81,0.00,,---,0.00,VWS V14.00,2013-02-13 00:35:00,
2013-02-12 19:38:00,29.4,24.3,29.97,WNW,292,5.0,9.0,81,0.00,,---,0.00,VWS V14.00,2013-02-13 00:38:00,
2013-02-12 19:39:00,29.4,24.3,29.97,WNW,292,5.0,9.0,81,0.00,,---,0.00,VWS V14.00,2013-02-13 00:39:00,
2013-02-12 19:40:00,29.3,24.2,29.97,NW,311,6.0,9.0,81,0.00,,---,0.00,VWS V14.00,2013-02-13 00:40:00,
2013-02-12 19:41:00,29.3,24.2,29.97,WNW,302,5.0,9.0,81,0.00,,---,0.00,VWS V14.00,2013-02-13 00:41:00,
2013-02-12 19:44:00,29.3,24.2,29.97,West,271,4.0,9.0,81,0.00,,---,0.00,VWS V14.00,2013-02-13 00:44:00,
2013-02-12 19:46:00,29.4,24.3,29.97,West,271,2.0,9.0,81,0.00,,---,0.00,VWS V14.00,2013-02-13 00:46:00,
2013-02-12 19:50:00,29.4,24.3,29.97,West,272,3.0,9.0,81,0.00,,---,0.00,VWS V14.00,2013-02-13 00:50:00,
2013-02-12 19:51:00,29.4,24.3,29.97,WNW,303,4.0,9.0,81,0.00,,---,0.00,VWS V14.00,2013-02-13 00:51:00,
2013-02-12 19:52:00,29.3,24.2,29.97,WNW,303,3.0,9.0,81,0.00,,---,0.00,VWS V14.00,2013-02-13 00:52:00,
2013-02-12 19:56:00,29.3,24.2,29.97,WNW,283,7.0,9.0,81,0.00,,---,0.00,VWS V14.00,2013-02-13 00:56:00,
2013-02-12 19:57:00,29.3,24.2,29.96,NW,323,5.0,9.0,81,0.00,,---,0.00,VWS V14.00,2013-02-13 00:57:00,
2013-02-12 19:58:00,29.3,24.2,29.96,NW,325,7.0,9.0,81,0.00,,---,0.00,VWS V14.00,2013-02-13 00:58:00,
2013-02-12 20:01:00,29.2,24.1,29.97,WNW,300,4.0,6.0,81,0.00,,---,0.00,VWS V14.00,2013-02-13 01:01:00,
2013-02-12 20:03:00,29.2,24.1,29.96,WNW,296,4.0,6.0,81,0.00,,---,0.00,VWS V14.00,2013-02-13 01:03:00,
2013-02-12 20:05:00,29.2,24.1,29.96,WNW,294,4.0,6.0,81,0.00,,---,0.00,VWS V14.00,2013-02-13 01:05:00,
2013-02-12 20:08:00,29.2,24.1,29.96,NW,312,5.0,9.0,81,0.00,,---,0.00,VWS V14.00,2013-02-13 01:08:00,
2013-02-12 20:09:00,29.2,24.1,29.96,NW,318,6.0,9.0,81,0.00,,---,0.00,VWS V14.00,2013-02-13 01:09:00,
2013-02-12 20:10:00,29.2,24.1,29.96,NW,304,3.0,9.0,81,0.00,,---,0.00,VWS V14.00,2013-02-13 01:10:00,
2013-02-12 20:11:00,29.2,24.1,29.97,WNW,299,3.0,9.0,81,0.00,,---,0.00,VWS V14.00,2013-02-13 01:11:00,
2013-02-12 20:13:00,29.2,24.1,29.96,WNW,300,6.0,9.0,81,0.00,,---,0.00,VWS V14.00,2013-02-13 01:13:00,
2013-02-12 20:14:00,29.2,24.1,29.96,WNW,300,6.0,9.0,81,0.00,,---,0.00,VWS V14.00,2013-02-13 01:14:00,
2013-02-12 20:15:00,29.2,24.1,29.96,WNW,298,6.0,10.0,81,0.00,,---,0.00,VWS V14.00,2013-02-13 01:15:00,
2013-02-12 20:16:00,29.2,24.1,29.96,WNW,290,3.0,10.0,81,0.00,,---,0.00,VWS V14.00,2013-02-13 01:16:00,
2013-02-12 20:20:00,29.2,24.1,29.96,WNW,290,1.0,10.0,81,0.00,,---,0.00,VWS V14.00,2013-02-13 01:20:00,
2013-02-12 20:21:00,29.3,24.2,29.96,WNW,290,2.0,10.0,81,0.00,,---,0.00,VWS V14.00,2013-02-13 01:21:00,
2013-02-12 20:22:00,29.3,24.2,29.96,WNW,290,4.0,10.0,81,0.00,,---,0.00,VWS V14.00,2013-02-13 01:22:00,
2013-02-12 20:23:00,29.3,24.2,29.96,WNW,290,5.0,10.0,81,0.00,,---,0.00,VWS V14.00,2013-02-13 01:23:00,
2013-02-12 20:25:00,29.3,24.2,29.96,WNW,290,3.0,10.0,81,0.00,,---,0.00,VWS V14.00,2013-02-13 01:25:00,
2013-02-12 20:26:00,29.3,24.2,29.96,WNW,290,2.0,10.0,81,0.00,,---,0.00,VWS V14.00,2013-02-13 01:26:00,
2013-02-12 20:28:00,29.3,24.2,29.96,WNW,287,3.0,10.0,81,0.00,,---,0.00,VWS V14.00,2013-02-13 01:28:00,
2013-02-12 20:31:00,29.3,24.2,29.96,West,267,4.0,9.0,81,0.00,,---,0.00,VWS V14.00,2013-02-13 01:31:00,
2013-02-12 20:32:00,29.3,24.2,29.95,West,267,3.0,9.0,81,0.00,,---,0.00,VWS V14.00,2013-02-13 01:32:00,
2013-02-12 20:34:00,29.2,24.1,29.95,West,267,2.0,9.0,81,0.00,,---,0.00,VWS V14.00,2013-02-13 01:34:00,
2013-02-12 20:36:00,29.2,24.1,29.95,West,267,2.0,9.0,81,0.00,,---,0.00,VWS V14.00,2013-02-13 01:36:00,
2013-02-12 20:38:00,29.2,24.1,29.95,West,267,1.0,9.0,81,0.00,,---,0.00,VWS V14.00,2013-02-13 01:38:00,
2013-02-12 20:39:00,29.3,24.2,29.95,West,267,5.0,9.0,81,0.00,,---,0.00,VWS V14.00,2013-02-13 01:39:00,
2013-02-12 20:40:00,29.3,24.2,29.95,West,268,4.0,9.0,81,0.00,,---,0.00,VWS V14.00,2013-02-13 01:40:00,
2013-02-12 20:41:00,29.3,24.2,29.95,West,268,2.0,9.0,81,0.00,,---,0.00,VWS V14.00,2013-02-13 01:41:00,
2013-02-12 20:43:00,29.3,24.2,29.95,West,268,3.0,9.0,81,0.00,,---,0.00,VWS V14.00,2013-02-13 01:43:00,
2013-02-12 20:44:00,29.3,24.2,29.95,West,268,2.0,9.0,81,0.00,,---,0.00,VWS V14.00,2013-02-13 01:44:00,
2013-02-12 20:45:00,29.3,24.2,29.95,West,268,4.0,9.0,81,0.00,,---,0.00,VWS V14.00,2013-02-13 01:45:00,
2013-02-12 20:47:00,29.3,24.2,29.96,West,268,6.0,9.0,81,0.00,,---,0.00,VWS V14.00,2013-02-13 01:47:00,
2013-02-12 20:48:00,29.3,24.2,29.95,West,268,1.0,9.0,81,0.00,,---,0.00,VWS V14.00,2013-02-13 01:48:00,
2013-02-12 20:50:00,29.3,24.2,29.95,West,268,3.0,9.0,81,0.00,,---,0.00,VWS V14.00,2013-02-13 01:50:00,
2013-02-12 20:52:00,29.3,24.2,29.95,West,268,5.0,9.0,81,0.00,,---,0.00,VWS V14.00,2013-02-13 01:52:00,
2013-02-12 20:55:00,29.2,24.1,29.96,West,263,2.0,9.0,81,0.00,,---,0.00,VWS V14.00,2013-02-13 01:55:00,
2013-02-12 20:57:00,29.2,24.1,29.95,West,263,3.0,9.0,81,0.00,,---,0.00,VWS V14.00,2013-02-13 01:57:00,
2013-02-12 20:58:00,29.3,24.2,29.95,West,263,3.0,9.0,81,0.00,,---,0.00,VWS V14.00,2013-02-13 01:58:00,
2013-02-12 21:01:00,29.3,24.2,29.95,West,267,4.0,6.0,81,0.00,,---,0.00,VWS V14.00,2013-02-13 02:01:00,
2013-02-12 21:02:00,29.3,24.2,29.95,West,267,2.0,6.0,81,0.00,,---,0.00,VWS V14.00,2013-02-13 02:02:00,
2013-02-12 21:04:00,29.3,24.2,29.95,West,261,6.0,8.0,81,0.00,,---,0.00,VWS V14.00,2013-02-13 02:04:00,
2013-02-12 21:06:00,29.3,24.2,29.95,West,262,5.0,9.0,81,0.00,,---,0.00,VWS V14.00,2013-02-13 02:06:00,
2013-02-12 21:07:00,29.3,24.2,29.95,West,262,4.0,9.0,81,0.00,,---,0.00,VWS V14.00,2013-02-13 02:07:00,
2013-02-12 21:09:00,29.3,24.2,29.95,West,262,4.0,9.0,81,0.00,,---,0.00,VWS V14.00,2013-02-13 02:09:00,
2013-02-12 21:11:00,29.3,24.2,29.95,West,261,4.0,9.0,81,0.00,,---,0.00,VWS V14.00,2013-02-13 02:11:00,
2013-02-12 21:12:00,29.3,24.2,29.95,West,261,3.0,9.0,81,0.00,,---,0.00,VWS V14.00,2013-02-13 02:12:00,
2013-02-12 21:14:00,29.4,24.3,29.95,West,261,4.0,9.0,81,0.00,,---,0.00,VWS V14.00,2013-02-13 02:14:00,
2013-02-12 21:16:00,29.3,24.2,29.95,West,262,3.0,9.0,81,0.00,,---,0.00,VWS V14.00,2013-02-13 02:16:00,
2013-02-12 21:18:00,29.3,24.2,29.95,West,260,5.0,9.0,81,0.00,,---,0.00,VWS V14.00,2013-02-13 02:18:00,
2013-02-12 21:19:00,29.3,24.2,29.95,WSW,255,2.0,9.0,81,0.00,,---,0.00,VWS V14.00,2013-02-13 02:19:00,
2013-02-12 21:20:00,29.3,24.2,29.95,WSW,255,4.0,9.0,81,0.00,,---,0.00,VWS V14.00,2013-02-13 02:20:00,
2013-02-12 21:21:00,29.3,24.2,29.95,WSW,256,1.0,9.0,81,0.00,,---,0.00,VWS V14.00,2013-02-13 02:21:00,
2013-02-12 21:24:00,29.3,24.2,29.94,WSW,256,3.0,9.0,81,0.00,,---,0.00,VWS V14.00,2013-02-13 02:24:00,
2013-02-12 21:26:00,29.3,24.2,29.94,WSW,256,1.0,9.0,81,0.00,,---,0.00,VWS V14.00,2013-02-13 02:26:00,
2013-02-12 21:27:00,29.3,24.2,29.94,WSW,256,5.0,9.0,81,0.00,,---,0.00,VWS V14.00,2013-02-13 02:27:00,
2013-02-12 21:29:00,29.3,24.2,29.94,WSW,256,3.0,5.0,81,0.00,,---,0.00,VWS V14.00,2013-02-13 02:29:00,
2013-02-12 21:30:00,29.3,24.2,29.94,WSW,256,3.0,5.0,81,0.00,,---,0.00,VWS V14.00,2013-02-13 02:30:00,
2013-02-12 21:32:00,29.4,24.3,29.94,WSW,256,2.0,5.0,81,0.00,,---,0.00,VWS V14.00,2013-02-13 02:32:00,
2013-02-12 21:34:00,29.4,24.3,29.94,WSW,256,2.0,5.0,81,0.00,,---,0.00,VWS V14.00,2013-02-13 02:34:00,
2013-02-12 21:35:00,29.3,24.2,29.94,WSW,258,6.0,6.0,81,0.00,,---,0.00,VWS V14.00,2013-02-13 02:35:00,
2013-02-12 21:36:00,29.4,24.3,29.94,West,260,6.0,9.0,81,0.00,,---,0.00,VWS V14.00,2013-02-13 02:36:00,
2013-02-12 21:38:00,29.4,24.3,29.94,West,262,5.0,9.0,81,0.00,,---,0.00,VWS V14.00,2013-02-13 02:38:00,
2013-02-12 21:40:00,29.4,24.3,29.94,West,265,5.0,9.0,81,0.00,,---,0.00,VWS V14.00,2013-02-13 02:40:00,
2013-02-12 21:41:00,29.4,24.3,29.94,West,266,5.0,9.0,81,0.00,,---,0.00,VWS V14.00,2013-02-13 02:41:00,
2013-02-12 21:42:00,29.4,24.3,29.94,West,265,5.0,9.0,81,0.00,,---,0.00,VWS V14.00,2013-02-13 02:42:00,
2013-02-12 21:44:00,29.4,24.3,29.94,West,265,4.0,9.0,81,0.00,,---,0.00,VWS V14.00,2013-02-13 02:44:00,
2013-02-12 21:45:00,29.4,24.3,29.94,West,265,6.0,9.0,81,0.00,,---,0.00,VWS V14.00,2013-02-13 02:45:00,
2013-02-12 21:46:00,29.4,24.3,29.94,West,267,6.0,9.0,81,0.00,,---,0.00,VWS V14.00,2013-02-13 02:46:00,
2013-02-12 21:49:00,29.4,24.3,29.93,WSW,254,4.0,9.0,81,0.00,,---,0.00,VWS V14.00,2013-02-13 02:49:00,
2013-02-12 21:50:00,29.5,24.4,29.93,WSW,254,4.0,9.0,81,0.00,,---,0.00,VWS V14.00,2013-02-13 02:50:00,
2013-02-12 21:51:00,29.5,24.4,29.93,WSW,254,2.0,9.0,81,0.00,,---,0.00,VWS V14.00,2013-02-13 02:51:00,
2013-02-12 21:55:00,29.5,24.4,29.93,WSW,257,3.0,9.0,81,0.00,,---,0.00,VWS V14.00,2013-02-13 02:55:00,
2013-02-12 21:57:00,29.5,24.4,29.93,West,259,5.0,9.0,81,0.00,,---,0.00,VWS V14.00,2013-02-13 02:57:00,
2013-02-12 21:58:00,29.5,24.4,29.93,West,263,5.0,9.0,81,0.00,,---,0.00,VWS V14.00,2013-02-13 02:58:00,
2013-02-12 22:00:00,29.5,24.4,29.93,West,264,2.0,6.0,81,0.00,,---,0.00,VWS V14.00,2013-02-13 03:00:00,
2013-02-12 22:02:00,29.5,24.4,29.93,West,265,5.0,7.0,81,0.00,,---,0.00,VWS V14.00,2013-02-13 03:02:00,
2013-02-12 22:03:00,29.5,24.4,29.93,West,265,4.0,7.0,81,0.00,,---,0.00,VWS V14.00,2013-02-13 03:03:00,
2013-02-12 22:04:00,29.5,24.4,29.93,West,264,3.0,7.0,81,0.00,,---,0.00,VWS V14.00,2013-02-13 03:04:00,
2013-02-12 22:06:00,29.5,24.4,29.93,West,266,5.0,7.0,81,0.00,,---,0.00,VWS V14.00,2013-02-13 03:06:00,
2013-02-12 22:07:00,29.5,24.4,29.93,West,271,3.0,7.0,81,0.00,,---,0.00,VWS V14.00,2013-02-13 03:07:00,
2013-02-12 22:09:00,29.6,24.5,29.93,West,271,3.0,7.0,81,0.00,,---,0.00,VWS V14.00,2013-02-13 03:09:00,
2013-02-12 22:12:00,29.5,24.4,29.93,West,271,3.0,7.0,81,0.00,,---,0.00,VWS V14.00,2013-02-13 03:12:00,
2013-02-12 22:14:00,29.5,24.4,29.92,West,271,4.0,7.0,81,0.00,,---,0.00,VWS V14.00,2013-02-13 03:14:00,
2013-02-12 22:15:00,29.5,24.4,29.92,West,270,8.0,8.0,81,0.00,,---,0.00,VWS V14.00,2013-02-13 03:15:00,
2013-02-12 22:17:00,29.5,24.4,29.93,West,269,4.0,8.0,81,0.00,,---,0.00,VWS V14.00,2013-02-13 03:17:00,
2013-02-12 22:18:00,29.5,24.4,29.93,West,269,3.0,8.0,81,0.00,,---,0.00,VWS V14.00,2013-02-13 03:18:00,
2013-02-12 22:21:00,29.5,24.4,29.93,West,269,3.0,8.0,81,0.00,,---,0.00,VWS V14.00,2013-02-13 03:21:00,
2013-02-12 22:23:00,29.6,24.5,29.93,West,270,5.0,8.0,81,0.00,,---,0.00,VWS V14.00,2013-02-13 03:23:00,
2013-02-12 22:26:00,29.6,24.5,29.92,West,270,2.0,8.0,81,0.00,,---,0.00,VWS V14.00,2013-02-13 03:26:00,
2013-02-12 22:27:00,29.6,24.5,29.92,West,270,2.0,8.0,81,0.00,,---,0.00,VWS V14.00,2013-02-13 03:27:00,
2013-02-12 22:28:00,29.6,24.5,29.92,West,270,2.0,8.0,81,0.00,,---,0.00,VWS V14.00,2013-02-13 03:28:00,
2013-02-12 22:29:00,29.6,24.5,29.92,West,270,4.0,6.0,81,0.00,,---,0.00,VWS V14.00,2013-02-13 03:29:00,
2013-02-12 22:31:00,29.6,24.5,29.92,West,270,3.0,6.0,81,0.00,,---,0.00,VWS V14.00,2013-02-13 03:31:00,
2013-02-12 22:32:00,29.6,24.5,29.92,West,269,3.0,6.0,81,0.00,,---,0.00,VWS V14.00,2013-02-13 03:32:00,
2013-02-12 22:33:00,29.6,24.5,29.92,West,270,3.0,6.0,81,0.00,,---,0.00,VWS V14.00,2013-02-13 03:33:00,
2013-02-12 22:35:00,29.6,24.5,29.92,West,270,3.0,6.0,81,0.00,,---,0.00,VWS V14.00,2013-02-13 03:35:00,
2013-02-12 22:36:00,29.6,24.5,29.92,West,269,4.0,6.0,81,0.00,,---,0.00,VWS V14.00,2013-02-13 03:36:00,
2013-02-12 22:38:00,29.6,24.5,29.92,West,270,4.0,6.0,81,0.00,,---,0.00,VWS V14.00,2013-02-13 03:38:00,
2013-02-12 22:42:00,29.6,24.5,29.92,West,267,5.0,7.0,81,0.00,,---,0.00,VWS V14.00,2013-02-13 03:42:00,
2013-02-12 22:43:00,29.7,24.6,29.92,West,267,4.0,7.0,81,0.00,,---,0.00,VWS V14.00,2013-02-13 03:43:00,
2013-02-12 22:44:00,29.7,24.6,29.92,West,267,4.0,7.0,81,0.00,,---,0.00,VWS V14.00,2013-02-13 03:44:00,
2013-02-12 22:47:00,29.6,24.5,29.92,West,268,6.0,7.0,81,0.00,,---,0.00,VWS V14.00,2013-02-13 03:47:00,
2013-02-12 22:49:00,29.7,24.6,29.92,West,269,5.0,7.0,81,0.00,,---,0.00,VWS V14.00,2013-02-13 03:49:00,
2013-02-12 22:50:00,29.6,24.5,29.92,West,269,3.0,7.0,81,0.00,,---,0.00,VWS V14.00,2013-02-13 03:50:00,
2013-02-12 22:54:00,29.7,24.6,29.92,West,269,3.0,7.0,81,0.00,,---,0.00,VWS V14.00,2013-02-13 03:54:00,
2013-02-12 22:55:00,29.6,24.5,29.92,West,269,2.0,7.0,81,0.00,,---,0.00,VWS V14.00,2013-02-13 03:55:00,
2013-02-12 22:57:00,29.7,24.6,29.92,West,269,6.0,7.0,81,0.00,,---,0.00,VWS V14.00,2013-02-13 03:57:00,
2013-02-12 22:58:00,29.7,24.6,29.92,West,270,6.0,7.0,81,0.00,,---,0.00,VWS V14.00,2013-02-13 03:58:00,
2013-02-12 22:59:00,29.7,24.6,29.92,West,269,2.0,5.0,81,0.00,,---,0.00,VWS V14.00,2013-02-13 03:59:00,
2013-02-12 23:00:00,29.7,24.6,29.93,West,269,4.0,6.0,81,0.00,,---,0.00,VWS V14.00,2013-02-13 04:00:00,
2013-02-12 23:03:00,29.7,24.6,29.93,West,270,2.0,6.0,81,0.00,,---,0.00,VWS V14.00,2013-02-13 04:03:00,
2013-02-12 23:04:00,29.7,24.6,29.93,West,270,3.0,6.0,81,0.00,,---,0.00,VWS V14.00,2013-02-13 04:04:00,
2013-02-12 23:06:00,29.7,24.6,29.92,West,270,4.0,6.0,81,0.00,,---,0.00,VWS V14.00,2013-02-13 04:06:00,
2013-02-12 23:08:00,29.7,24.6,29.92,West,269,2.0,6.0,81,0.00,,---,0.00,VWS V14.00,2013-02-13 04:08:00,
2013-02-12 23:10:00,29.7,24.6,29.92,West,269,4.0,6.0,81,0.00,,---,0.00,VWS V14.00,2013-02-13 04:10:00,
2013-02-12 23:12:00,29.7,24.6,29.92,West,271,2.0,6.0,81,0.00,,---,0.00,VWS V14.00,2013-02-13 04:12:00,
2013-02-12 23:13:00,29.7,24.6,29.92,West,271,2.0,6.0,81,0.00,,---,0.00,VWS V14.00,2013-02-13 04:13:00,
2013-02-12 23:15:00,29.7,24.6,29.92,West,271,7.0,7.0,81,0.00,,---,0.00,VWS V14.00,2013-02-13 04:15:00,
2013-02-12 23:17:00,29.7,24.6,29.92,West,271,6.0,7.0,81,0.00,,---,0.00,VWS V14.00,2013-02-13 04:17:00,
2013-02-12 23:18:00,29.7,24.6,29.92,West,273,4.0,7.0,81,0.00,,---,0.00,VWS V14.00,2013-02-13 04:18:00,
2013-02-12 23:19:00,29.7,24.6,29.92,West,281,4.0,7.0,81,0.00,,---,0.00,VWS V14.00,2013-02-13 04:19:00,
2013-02-12 23:20:00,29.7,24.6,29.92,WNW,286,3.0,7.0,81,0.00,,---,0.00,VWS V14.00,2013-02-13 04:20:00,
2013-02-12 23:23:00,29.7,24.6,29.92,WNW,286,4.0,7.0,81,0.00,,---,0.00,VWS V14.00,2013-02-13 04:23:00,
2013-02-12 23:24:00,29.7,24.6,29.92,WNW,286,0.0,7.0,81,0.00,,---,0.00,VWS V14.00,2013-02-13 04:24:00,
2013-02-12 23:25:00,29.7,24.6,29.92,WNW,286,2.0,7.0,81,0.00,,---,0.00,VWS V14.00,2013-02-13 04:25:00,
2013-02-12 23:28:00,29.8,24.7,29.92,WNW,286,4.0,7.0,81,0.00,,---,0.00,VWS V14.00,2013-02-13 04:28:00,
2013-02-12 23:30:00,29.8,24.7,29.92,WNW,286,4.0,4.0,81,0.00,,---,0.00,VWS V14.00,2013-02-13 04:30:00,
2013-02-12 23:31:00,29.7,24.6,29.92,WNW,286,4.0,5.0,81,0.00,,---,0.00,VWS V14.00,2013-02-13 04:31:00,
2013-02-12 23:33:00,29.8,24.7,29.92,WNW,286,2.0,5.0,81,0.00,,---,0.00,VWS V14.00,2013-02-13 04:33:00,
2013-02-12 23:38:00,29.8,24.7,29.92,WNW,282,5.0,7.0,81,0.00,,---,0.00,VWS V14.00,2013-02-13 04:38:00,
2013-02-12 23:39:00,29.8,24.7,29.92,WNW,294,7.0,9.0,81,0.00,,---,0.00,VWS V14.00,2013-02-13 04:39:00,
2013-02-12 23:40:00,29.8,24.7,29.92,WNW,294,2.0,9.0,81,0.00,,---,0.00,VWS V14.00,2013-02-13 04:40:00,
2013-02-12 23:43:00,29.9,24.8,29.92,WNW,294,2.0,9.0,81,0.00,,---,0.00,VWS V14.00,2013-02-13 04:43:00,
2013-02-12 23:44:00,29.8,24.7,29.92,WNW,294,3.0,9.0,81,0.00,,---,0.00,VWS V14.00,2013-02-13 04:44:00,
2013-02-12 23:47:00,29.8,24.7,29.92,WNW,294,2.0,9.0,81,0.00,,---,0.00,VWS V14.00,2013-02-13 04:47:00,
2013-02-12 23:48:00,29.9,24.8,29.92,WNW,294,2.0,9.0,81,0.00,,---,0.00,VWS V14.00,2013-02-13 04:48:00,
2013-02-12 23:49:00,29.9,24.8,29.92,WNW,294,4.0,9.0,81,0.00,,---,0.00,VWS V14.00,2013-02-13 04:49:00,
2013-02-12 23:50:00,29.8,24.7,29.92,WNW,294,3.0,9.0,81,0.00,,---,0.00,VWS V14.00,2013-02-13 04:50:00,
2013-02-12 23:53:00,29.8,24.7,29.92,WNW,294,2.0,9.0,81,0.00,,---,0.00,VWS V14.00,2013-02-13 04:53:00,
2013-02-12 23:54:00,29.9,24.8,29.92,WNW,292,0.0,9.0,81,0.00,,---,0.00,VWS V14.00,2013-02-13 04:54:00,
2013-02-12 23:55:00,29.9,24.8,29.92,WNW,292,3.0,9.0,81,0.00,,---,0.00,VWS V14.00,2013-02-13 04:55:00,
2013-02-12 23:56:00,29.9,24.8,29.92,WNW,292,3.0,9.0,81,0.00,,---,0.00,VWS V14.00,2013-02-13 04:56:00,
2013-02-12 23:59:00,29.8,24.7,29.92,WNW,292,3.0,3.0,81,0.00,,---,0.00,VWS V14.00,2013-02-13 04:59:00,